Time,TemperatureF,DewpointF,PressureIn,WindDirection,WindDirectionDegrees,WindSpeedMPH,WindSpeedGustMPH,Humidity,HourlyPrecipIn,Conditions,Clouds,dailyrainin,SolarRadiationWatts/m^2,SoftwareType,DateUTC
2013-10-08 06:22:00,60.3,41.3,29.18,WSW,239,4.8,5.3,49,-99.99,,,0.00,.33,rob ver 1B,2013-10-08 13:22:00,
2013-10-08 06:23:00,60.3,41.4,29.18,WSW,240,5.0,6.0,49,-99.99,,,0.00,.495,rob ver 1B,2013-10-08 13:23:00,
2013-10-08 06:24:00,60.3,41.3,29.18,WSW,238,4.7,5.9,49,-99.99,,,0.00,.66,rob ver 1B,2013-10-08 13:24:00,
2013-10-08 06:25:00,60.3,41.3,29.18,SW,234,4.6,5.1,49,-99.99,,,0.00,.66,rob ver 1B,2013-10-08 13:25:00,
2013-10-08 06:26:00,60.3,41.2,29.18,SW,234,4.4,5.8,49,-99.99,,,0.00,.66,rob ver 1B,2013-10-08 13:26:00,
2013-10-08 06:27:00,60.3,41.3,29.18,SW,236,5.1,5.9,49,-99.99,,,0.00,1.32,rob ver 1B,2013-10-08 13:27:00,
2013-10-08 06:28:00,60.3,41.2,29.18,WSW,239,5.0,5.5,49,-99.99,,,0.00,1.32,rob ver 1B,2013-10-08 13:28:00,
2013-10-08 06:29:00,60.4,41.2,29.18,WSW,246,5.2,6.7,48,-99.99,,,0.00,1.65,rob ver 1B,2013-10-08 13:29:00,
2013-10-08 06:30:00,60.4,41.1,29.18,WSW,246,4.7,6.1,48,-99.99,,,0.00,2.309,rob ver 1B,2013-10-08 13:30:00,
2013-10-08 06:31:00,60.5,41.0,29.18,SW,236,5.6,6.6,48,-99.99,,,0.00,2.639,rob ver 1B,2013-10-08 13:31:00,
2013-10-08 06:32:00,60.5,41.0,29.18,SW,231,5.7,6.3,48,-99.99,,,0.00,3.464,rob ver 1B,2013-10-08 13:32:00,
2013-10-08 06:33:00,60.6,41.0,29.18,SW,230,5.7,7.0,48,-99.99,,,0.00,3.794,rob ver 1B,2013-10-08 13:33:00,
2013-10-08 06:34:00,60.7,41.0,29.18,WSW,239,5.9,7.2,47,-99.99,,,0.00,4.454,rob ver 1B,2013-10-08 13:34:00,
2013-10-08 06:35:00,60.8,40.9,29.18,WSW,242,5.4,6.4,47,-99.99,,,0.00,4.949,rob ver 1B,2013-10-08 13:35:00,
2013-10-08 06:36:00,60.8,40.9,29.18,WSW,248,6.5,8.8,47,-99.99,,,0.00,5.608,rob ver 1B,2013-10-08 13:36:00,
2013-10-08 06:37:00,60.9,40.9,29.18,WSW,244,7.2,10.1,47,-99.99,,,0.00,6.268,rob ver 1B,2013-10-08 13:37:00,
2013-10-08 06:38:00,61.1,40.9,29.18,WSW,244,9.4,11.5,46,-99.99,,,0.00,7.09,rob ver 1B,2013-10-08 13:38:00,
2013-10-08 06:39:00,61.5,40.8,29.18,WSW,247,9.4,11.6,46,-99.99,,,0.00,7.59,rob ver 1B,2013-10-08 13:39:00,
2013-10-08 06:40:00,61.8,40.8,29.18,WSW,243,8.9,11.1,45,-99.99,,,0.00,8.25,rob ver 1B,2013-10-08 13:40:00,
2013-10-08 06:41:00,62.0,40.9,29.18,SW,235,7.8,9.8,45,-99.99,,,0.00,8.91,rob ver 1B,2013-10-08 13:41:00,
2013-10-08 06:42:00,61.9,40.9,29.18,SW,234,7.7,9.8,45,-99.99,,,0.00,9.9,rob ver 1B,2013-10-08 13:42:00,
2013-10-08 06:43:00,61.8,40.9,29.18,SW,230,7.8,10.2,46,-99.99,,,0.00,10.89,rob ver 1B,2013-10-08 13:43:00,
2013-10-08 06:44:00,61.7,40.9,29.18,SW,223,7.8,8.8,46,-99.99,,,0.00,12.21,rob ver 1B,2013-10-08 13:44:00,
2013-10-08 06:45:00,61.6,41.0,29.18,SW,224,7.5,8.9,46,-99.99,,,0.00,14.19,rob ver 1B,2013-10-08 13:45:00,
2013-10-08 06:46:00,61.6,41.0,29.18,SW,223,7.7,8.9,46,-99.99,,,0.00,16,rob ver 1B,2013-10-08 13:46:00,
2013-10-08 06:47:00,61.5,41.0,29.18,SW,225,7.7,8.4,46,-99.99,,,0.00,17.98,rob ver 1B,2013-10-08 13:47:00,
2013-10-08 06:48:00,61.3,40.9,29.18,SW,227,7.6,8.8,46,-99.99,,,0.00,20.29,rob ver 1B,2013-10-08 13:48:00,
2013-10-08 06:49:00,61.2,41.0,29.18,SW,229,7.3,8.4,47,-99.99,,,0.00,22.93,rob ver 1B,2013-10-08 13:49:00,
2013-10-08 06:50:00,61.2,41.0,29.18,SW,230,7.2,8.4,47,-99.99,,,0.00,25.4,rob ver 1B,2013-10-08 13:50:00,
2013-10-08 06:51:00,61.2,41.0,29.18,SW,232,7.1,8.1,47,-99.99,,,0.00,28.04,rob ver 1B,2013-10-08 13:51:00,
2013-10-08 06:52:00,61.3,41.0,29.18,SW,233,6.9,7.7,47,-99.99,,,0.00,30.68,rob ver 1B,2013-10-08 13:52:00,
2013-10-08 06:53:00,61.3,41.1,29.18,SW,231,6.7,7.4,47,-99.99,,,0.00,33.98,rob ver 1B,2013-10-08 13:53:00,
2013-10-08 06:54:00,61.2,41.1,29.18,SW,233,6.5,7.2,47,-99.99,,,0.00,37.28,rob ver 1B,2013-10-08 13:54:00,
2013-10-08 06:55:00,61.2,41.1,29.18,SW,233,6.8,7.5,47,-99.99,,,0.00,40.58,rob ver 1B,2013-10-08 13:55:00,
2013-10-08 06:56:00,61.2,41.1,29.21,SW,233,6.5,7.5,47,-99.99,,,0.00,44.54,rob ver 1B,2013-10-08 13:56:00,
2013-10-08 06:57:00,61.2,41.1,29.21,SW,232,6.3,7.3,47,-99.99,,,0.00,48.5,rob ver 1B,2013-10-08 13:57:00,
2013-10-08 06:58:00,61.2,41.1,29.21,SW,233,6.0,6.8,47,-99.99,,,0.00,52.29,rob ver 1B,2013-10-08 13:58:00,
2013-10-08 06:59:00,61.2,41.1,29.21,SW,234,5.7,6.3,47,-99.99,,,0.00,56.41,rob ver 1B,2013-10-08 13:59:00,
2013-10-08 07:00:00,61.3,41.1,29.21,SW,234,5.9,6.6,47,-99.99,,,0.00,60.7,rob ver 1B,2013-10-08 14:00:00,
2013-10-08 07:01:00,61.4,41.2,29.21,SW,233,5.4,6.1,47,-99.99,,,0.00,65.32,rob ver 1B,2013-10-08 14:01:00,
2013-10-08 07:02:00,61.4,41.2,29.21,SW,235,5.3,6.3,47,-99.99,,,0.00,69.61,rob ver 1B,2013-10-08 14:02:00,
2013-10-08 07:03:00,61.4,41.2,29.21,SW,232,4.6,5.7,47,-99.99,,,0.00,73.6,rob ver 1B,2013-10-08 14:03:00,
2013-10-08 07:04:00,61.5,41.2,29.21,SW,236,4.6,6.2,47,-99.99,,,0.00,78.2,rob ver 1B,2013-10-08 14:04:00,
2013-10-08 07:05:00,61.6,41.2,29.21,WSW,242,5.5,7.0,46,-99.99,,,0.00,82.8,rob ver 1B,2013-10-08 14:05:00,
2013-10-08 07:06:00,61.7,41.2,29.21,WSW,238,5.5,7.0,46,-99.99,,,0.00,87.4,rob ver 1B,2013-10-08 14:06:00,
2013-10-08 07:07:00,61.9,41.2,29.21,WSW,242,6.1,7.1,46,-99.99,,,0.00,92,rob ver 1B,2013-10-08 14:07:00,
2013-10-08 07:08:00,62.0,41.2,29.21,WSW,244,5.7,7.3,46,-99.99,,,0.00,96.7,rob ver 1B,2013-10-08 14:08:00,
2013-10-08 07:09:00,62.1,41.3,29.21,WSW,245,6.2,7.4,46,-99.99,,,0.00,100.6,rob ver 1B,2013-10-08 14:09:00,
2013-10-08 07:10:00,62.2,41.3,29.21,WSW,246,5.2,6.2,46,-99.99,,,0.00,103.9,rob ver 1B,2013-10-08 14:10:00,
2013-10-08 07:11:00,62.2,41.3,29.21,WSW,243,5.0,6.0,46,-99.99,,,0.00,107.2,rob ver 1B,2013-10-08 14:11:00,
2013-10-08 07:12:00,62.3,41.3,29.21,WSW,242,5.6,7.8,45,-99.99,,,0.00,109.9,rob ver 1B,2013-10-08 14:12:00,
2013-10-08 07:13:00,62.4,41.3,29.21,SW,235,4.6,5.7,45,-99.99,,,0.00,112.3,rob ver 1B,2013-10-08 14:13:00,
2013-10-08 07:14:00,62.4,41.4,29.21,SW,236,4.9,5.8,45,-99.99,,,0.00,115.1,rob ver 1B,2013-10-08 14:14:00,
2013-10-08 07:15:00,62.5,41.4,29.21,SW,233,5.0,6.7,45,-99.99,,,0.00,118.4,rob ver 1B,2013-10-08 14:15:00,
2013-10-08 07:16:00,62.6,41.4,29.21,SW,234,4.4,5.1,45,-99.99,,,0.00,121.7,rob ver 1B,2013-10-08 14:16:00,
2013-10-08 07:17:00,62.6,41.5,29.21,SW,235,4.2,4.7,45,-99.99,,,0.00,126.4,rob ver 1B,2013-10-08 14:17:00,
2013-10-08 07:18:00,62.7,41.5,29.21,WSW,237,4.7,5.9,45,-99.99,,,0.00,131.6,rob ver 1B,2013-10-08 14:18:00,
2013-10-08 07:19:00,62.7,41.6,29.21,SW,235,4.8,5.7,45,-99.99,,,0.00,136.9,rob ver 1B,2013-10-08 14:19:00,
2013-10-08 07:20:00,62.7,41.6,29.21,SW,230,4.7,6.0,45,-99.99,,,0.00,142.9,rob ver 1B,2013-10-08 14:20:00,
2013-10-08 07:21:00,62.8,41.6,29.21,SW,233,5.1,6.6,45,-99.99,,,0.00,148.1,rob ver 1B,2013-10-08 14:21:00,
2013-10-08 07:22:00,62.9,41.6,29.21,SW,229,5.3,6.6,45,-99.99,,,0.00,152.8,rob ver 1B,2013-10-08 14:22:00,
2013-10-08 07:23:00,63.1,41.6,29.21,SW,227,5.0,6.3,45,-99.99,,,0.00,158,rob ver 1B,2013-10-08 14:23:00,
2013-10-08 07:24:00,63.2,41.5,29.21,SW,225,5.7,7.3,44,-99.99,,,0.00,162.2,rob ver 1B,2013-10-08 14:24:00,
2013-10-08 07:25:00,63.3,41.5,29.21,SW,232,6.9,8.5,44,-99.99,,,0.00,166.3,rob ver 1B,2013-10-08 14:25:00,
2013-10-08 07:26:00,63.4,41.6,29.21,SW,231,6.8,8.6,44,-99.99,,,0.00,169.6,rob ver 1B,2013-10-08 14:26:00,
2013-10-08 07:27:00,63.5,41.4,29.21,SW,233,7.5,8.6,44,-99.99,,,0.00,174.2,rob ver 1B,2013-10-08 14:27:00,
2013-10-08 07:28:00,63.6,41.5,29.21,SW,233,6.7,8.4,44,-99.99,,,0.00,177.5,rob ver 1B,2013-10-08 14:28:00,
2013-10-08 07:29:00,63.6,41.4,29.21,SW,232,7.2,8.2,44,-99.99,,,0.00,173.9,rob ver 1B,2013-10-08 14:29:00,
2013-10-08 07:30:00,63.7,41.5,29.21,SW,233,5.6,8.1,43,-99.99,,,0.00,152.1,rob ver 1B,2013-10-08 14:30:00,
2013-10-08 07:31:00,63.8,41.4,29.21,SW,233,6.9,8.5,43,-99.99,,,0.00,129.7,rob ver 1B,2013-10-08 14:31:00,
2013-10-08 07:32:00,63.7,41.4,29.21,SW,230,6.9,8.2,44,-99.99,,,0.00,116.5,rob ver 1B,2013-10-08 14:32:00,
2013-10-08 07:33:00,63.6,41.5,29.21,SW,234,5.3,6.2,44,-99.99,,,0.00,108.9,rob ver 1B,2013-10-08 14:33:00,
2013-10-08 07:34:00,63.5,41.5,29.21,SW,233,5.6,7.5,44,-99.99,,,0.00,107.7,rob ver 1B,2013-10-08 14:34:00,
2013-10-08 07:35:00,63.5,41.4,29.21,SW,228,6.8,9.2,44,-99.99,,,0.00,114.5,rob ver 1B,2013-10-08 14:35:00,
2013-10-08 07:36:00,63.5,41.3,29.21,SW,233,6.5,9.7,43,-99.99,,,0.00,107.9,rob ver 1B,2013-10-08 14:36:00,
2013-10-08 07:37:00,63.4,41.2,29.21,WSW,244,6.6,7.6,44,-99.99,,,0.00,117.6,rob ver 1B,2013-10-08 14:37:00,
2013-10-08 07:38:00,63.4,41.3,29.21,SW,236,6.9,8.6,44,-99.99,,,0.00,115,rob ver 1B,2013-10-08 14:38:00,
2013-10-08 07:39:00,63.4,41.3,29.21,WSW,237,7.7,9.3,44,-99.99,,,0.00,114.5,rob ver 1B,2013-10-08 14:39:00,
2013-10-08 07:40:00,63.4,41.2,29.21,SW,234,6.7,9.8,44,-99.99,,,0.00,119.1,rob ver 1B,2013-10-08 14:40:00,
2013-10-08 07:41:00,63.5,41.3,29.21,SW,236,7.2,8.7,44,-99.99,,,0.00,115.8,rob ver 1B,2013-10-08 14:41:00,
2013-10-08 07:42:00,63.5,41.3,29.21,WSW,241,7.6,9.2,44,-99.99,,,0.00,120.1,rob ver 1B,2013-10-08 14:42:00,
2013-10-08 07:43:00,63.5,41.1,29.21,WSW,237,11.8,15.8,43,-99.99,,,0.00,125,rob ver 1B,2013-10-08 14:43:00,
2013-10-08 07:44:00,63.5,41.0,29.21,WSW,245,10.7,13.2,43,-99.99,,,0.00,124.7,rob ver 1B,2013-10-08 14:44:00,
2013-10-08 07:45:00,63.6,41.1,29.21,WSW,248,8.4,11.2,43,-99.99,,,0.00,126.4,rob ver 1B,2013-10-08 14:45:00,
2013-10-08 07:46:00,63.7,41.1,29.21,WSW,256,7.5,9.9,43,-99.99,,,0.00,127,rob ver 1B,2013-10-08 14:46:00,
2013-10-08 07:47:00,63.7,41.1,29.21,WSW,248,8.0,9.8,43,-99.99,,,0.00,126,rob ver 1B,2013-10-08 14:47:00,
2013-10-08 07:48:00,63.8,41.1,29.21,WSW,255,8.0,12.6,43,-99.99,,,0.00,127.8,rob ver 1B,2013-10-08 14:48:00,
2013-10-08 07:49:00,63.8,41.0,29.21,WSW,249,9.7,11.6,43,-99.99,,,0.00,125.7,rob ver 1B,2013-10-08 14:49:00,
2013-10-08 07:50:00,63.9,41.1,29.21,WSW,246,7.3,10.4,43,-99.99,,,0.00,128.3,rob ver 1B,2013-10-08 14:50:00,
2013-10-08 07:51:00,64.0,41.1,29.21,WSW,250,9.1,11.9,43,-99.99,,,0.00,126.9,rob ver 1B,2013-10-08 14:51:00,
2013-10-08 07:52:00,64.0,41.1,29.21,WSW,252,9.3,11.4,42,-99.99,,,0.00,131,rob ver 1B,2013-10-08 14:52:00,
2013-10-08 07:53:00,64.0,41.0,29.21,WSW,258,9.6,12.2,42,-99.99,,,0.00,129,rob ver 1B,2013-10-08 14:53:00,
2013-10-08 07:54:00,64.0,41.0,29.21,WSW,252,8.7,10.8,42,-99.99,,,0.00,130.6,rob ver 1B,2013-10-08 14:54:00,
2013-10-08 07:55:00,64.0,41.0,29.21,WSW,252,7.7,11.0,42,-99.99,,,0.00,127,rob ver 1B,2013-10-08 14:55:00,
2013-10-08 07:56:00,64.1,41.0,29.21,WSW,251,8.5,11.8,42,-99.99,,,0.00,129,rob ver 1B,2013-10-08 14:56:00,
2013-10-08 07:57:00,64.1,41.0,29.21,WSW,250,8.1,10.2,42,-99.99,,,0.00,129,rob ver 1B,2013-10-08 14:57:00,
2013-10-08 07:58:00,64.1,41.0,29.21,WSW,258,8.6,12.7,42,-99.99,,,0.00,130.3,rob ver 1B,2013-10-08 14:58:00,
2013-10-08 07:59:00,64.1,40.9,29.21,WSW,257,10.6,12.8,42,-99.99,,,0.00,132.3,rob ver 1B,2013-10-08 14:59:00,
2013-10-08 08:00:00,64.1,40.9,29.21,WSW,253,10.2,12.6,42,-99.99,,,0.00,133.6,rob ver 1B,2013-10-08 15:00:00,
2013-10-08 08:01:00,64.1,41.0,29.21,WSW,251,11.7,15.5,42,-99.99,,,0.00,138.6,rob ver 1B,2013-10-08 15:01:00,
2013-10-08 08:02:00,64.1,41.0,29.21,WSW,244,11.2,13.9,42,-99.99,,,0.00,137.6,rob ver 1B,2013-10-08 15:02:00,
2013-10-08 08:03:00,64.1,41.0,29.21,WSW,247,9.6,12.0,42,-99.99,,,0.00,140,rob ver 1B,2013-10-08 15:03:00,
2013-10-08 08:04:00,64.1,41.0,29.21,WSW,247,10.5,11.9,42,-99.99,,,0.00,140.9,rob ver 1B,2013-10-08 15:04:00,
2013-10-08 08:05:00,64.1,41.0,29.21,WSW,243,10.3,12.8,42,-99.99,,,0.00,140.9,rob ver 1B,2013-10-08 15:05:00,
2013-10-08 08:06:00,64.1,41.0,29.21,WSW,237,10.0,12.3,42,-99.99,,,0.00,140.7,rob ver 1B,2013-10-08 15:06:00,
2013-10-08 08:07:00,64.2,41.0,29.21,SW,232,11.0,14.1,42,-99.99,,,0.00,143.8,rob ver 1B,2013-10-08 15:07:00,
2013-10-08 08:08:00,64.2,41.0,29.21,SW,233,11.7,15.6,42,-99.99,,,0.00,139.7,rob ver 1B,2013-10-08 15:08:00,
2013-10-08 08:09:00,64.2,41.0,29.21,WSW,238,13.1,17.0,42,-99.99,,,0.00,140.9,rob ver 1B,2013-10-08 15:09:00,
2013-10-08 08:10:00,64.1,41.0,29.21,WSW,241,12.9,15.4,42,-99.99,,,0.00,140.9,rob ver 1B,2013-10-08 15:10:00,
2013-10-08 08:11:00,64.1,41.0,29.21,WSW,238,12.5,16.5,42,-99.99,,,0.00,142.8,rob ver 1B,2013-10-08 15:11:00,
2013-10-08 08:12:00,64.2,41.0,29.21,WSW,243,14.6,21.0,42,-99.99,,,0.00,141.9,rob ver 1B,2013-10-08 15:12:00,
2013-10-08 08:13:00,64.2,40.9,29.21,WSW,241,15.4,18.8,42,-99.99,,,0.00,140.4,rob ver 1B,2013-10-08 15:13:00,
2013-10-08 08:14:00,64.2,41.0,29.21,SW,234,13.9,17.4,42,-99.99,,,0.00,141.5,rob ver 1B,2013-10-08 15:14:00,
2013-10-08 08:15:00,64.3,41.0,29.21,SW,233,16.0,19.5,42,-99.99,,,0.00,144.2,rob ver 1B,2013-10-08 15:15:00,
2013-10-08 08:16:00,64.2,41.0,29.21,SW,234,13.5,16.1,42,-99.99,,,0.00,160,rob ver 1B,2013-10-08 15:16:00,
2013-10-08 08:17:00,64.3,41.1,29.21,SW,233,15.4,18.0,42,-99.99,,,0.00,152.1,rob ver 1B,2013-10-08 15:17:00,
2013-10-08 08:18:00,64.3,41.1,29.21,WSW,241,14.3,18.1,42,-99.99,,,0.00,150.9,rob ver 1B,2013-10-08 15:18:00,
2013-10-08 08:19:00,64.3,41.1,29.21,SW,230,13.9,16.6,42,-99.99,,,0.00,193.7,rob ver 1B,2013-10-08 15:19:00,
2013-10-08 08:20:00,64.3,41.1,29.21,SW,229,12.3,14.9,42,-99.99,,,0.00,210.8,rob ver 1B,2013-10-08 15:20:00,
2013-10-08 08:21:00,64.6,41.1,29.21,SW,234,11.9,15.1,42,-99.99,,,0.00,266.2,rob ver 1B,2013-10-08 15:21:00,
2013-10-08 08:22:00,64.8,41.2,29.21,SW,235,11.6,15.1,41,-99.99,,,0.00,283.4,rob ver 1B,2013-10-08 15:22:00,
2013-10-08 08:23:00,65.0,41.1,29.21,WSW,244,13.6,18.8,41,-99.99,,,0.00,282.1,rob ver 1B,2013-10-08 15:23:00,
2013-10-08 08:24:00,65.1,41.1,29.21,WSW,239,12.5,15.2,41,-99.99,,,0.00,258,rob ver 1B,2013-10-08 15:24:00,
2013-10-08 08:25:00,65.1,41.2,29.21,SW,236,14.8,18.0,41,-99.99,,,0.00,243.8,rob ver 1B,2013-10-08 15:25:00,
2013-10-08 08:26:00,65.2,41.3,29.23,WSW,245,12.2,16.2,41,-99.99,,,0.00,208.5,rob ver 1B,2013-10-08 15:26:00,
2013-10-08 08:27:00,65.2,41.2,29.23,WSW,246,14.8,21.9,41,-99.99,,,0.00,213.1,rob ver 1B,2013-10-08 15:27:00,
2013-10-08 08:28:00,65.2,41.2,29.21,WSW,241,16.8,20.7,41,-99.99,,,0.00,238.7,rob ver 1B,2013-10-08 15:28:00,
2013-10-08 08:29:00,65.1,41.3,29.21,WSW,246,17.6,22.3,41,-99.99,,,0.00,221.5,rob ver 1B,2013-10-08 15:29:00,
2013-10-08 08:30:00,65.1,41.4,29.21,WSW,240,16.4,20.4,41,-99.99,,,0.00,240.2,rob ver 1B,2013-10-08 15:30:00,
2013-10-08 08:31:00,65.1,41.4,29.21,SW,235,18.1,22.9,41,-99.99,,,0.00,338.3,rob ver 1B,2013-10-08 15:31:00,
2013-10-08 08:32:00,65.2,41.5,29.21,SW,233,17.6,23.4,41,-99.99,,,0.00,370.5,rob ver 1B,2013-10-08 15:32:00,
2013-10-08 08:33:00,65.3,41.5,29.21,SW,236,18.8,22.0,41,-99.99,,,0.00,350.7,rob ver 1B,2013-10-08 15:33:00,
2013-10-08 08:34:00,65.3,41.5,29.21,SW,231,18.2,21.7,41,-99.99,,,0.00,403.1,rob ver 1B,2013-10-08 15:34:00,
2013-10-08 08:35:00,65.3,41.4,29.21,WSW,237,19.2,22.3,41,-99.99,,,0.00,459.9,rob ver 1B,2013-10-08 15:35:00,
2013-10-08 08:36:00,65.5,41.4,29.21,WSW,238,17.6,22.4,41,-99.99,,,0.00,419.8,rob ver 1B,2013-10-08 15:36:00,
2013-10-08 08:37:00,65.7,41.5,29.23,WSW,237,15.5,20.1,41,-99.99,,,0.00,433.8,rob ver 1B,2013-10-08 15:37:00,
2013-10-08 08:38:00,65.9,41.6,29.23,SW,236,16.4,20.0,40,-99.99,,,0.00,430.7,rob ver 1B,2013-10-08 15:38:00,
2013-10-08 08:39:00,66.0,41.5,29.23,WSW,240,16.4,21.1,40,-99.99,,,0.00,434.2,rob ver 1B,2013-10-08 15:39:00,
2013-10-08 08:40:00,66.0,41.4,29.23,SW,236,15.7,20.4,41,-99.99,,,0.00,419.8,rob ver 1B,2013-10-08 15:40:00,
2013-10-08 08:41:00,66.1,41.6,29.23,SW,235,15.0,20.5,40,-99.99,,,0.00,432.8,rob ver 1B,2013-10-08 15:41:00,
2013-10-08 08:42:00,66.2,41.5,29.23,SW,233,15.6,20.8,40,-99.99,,,0.00,461.9,rob ver 1B,2013-10-08 15:42:00,
2013-10-08 08:43:00,66.3,41.4,29.23,SW,229,16.1,18.9,40,-99.99,,,0.00,465,rob ver 1B,2013-10-08 15:43:00,
2013-10-08 08:44:00,66.2,41.5,29.23,WSW,243,17.0,21.4,40,-99.99,,,0.00,456.6,rob ver 1B,2013-10-08 15:44:00,
2013-10-08 08:45:00,66.2,41.3,29.23,WSW,250,17.0,20.0,40,-99.99,,,0.00,449.5,rob ver 1B,2013-10-08 15:45:00,
2013-10-08 08:46:00,66.3,41.5,29.23,WSW,252,15.0,17.9,40,-99.99,,,0.00,439.8,rob ver 1B,2013-10-08 15:46:00,
2013-10-08 08:47:00,66.5,41.4,29.23,WSW,253,14.1,18.1,39,-99.99,,,0.00,457.2,rob ver 1B,2013-10-08 15:47:00,
2013-10-08 08:48:00,66.8,41.3,29.23,WSW,246,14.9,18.9,39,-99.99,,,0.00,450.6,rob ver 1B,2013-10-08 15:48:00,
2013-10-08 08:49:00,66.9,41.3,29.23,WSW,251,14.8,17.5,39,-99.99,,,0.00,432,rob ver 1B,2013-10-08 15:49:00,
2013-10-08 08:50:00,67.0,41.2,29.23,West,260,15.1,18.3,38,-99.99,,,0.00,436.1,rob ver 1B,2013-10-08 15:50:00,
2013-10-08 08:51:00,67.0,41.1,29.23,WSW,258,15.2,18.7,38,-99.99,,,0.00,441.7,rob ver 1B,2013-10-08 15:51:00,
2013-10-08 08:52:00,66.8,41.1,29.23,West,260,14.4,19.2,39,-99.99,,,0.00,444.1,rob ver 1B,2013-10-08 15:52:00,
2013-10-08 08:53:00,66.7,41.1,29.23,WSW,257,17.0,20.2,39,-99.99,,,0.00,435.3,rob ver 1B,2013-10-08 15:53:00,
2013-10-08 08:54:00,66.5,41.2,29.23,West,260,16.3,20.3,39,-99.99,,,0.00,436.4,rob ver 1B,2013-10-08 15:54:00,
2013-10-08 08:55:00,66.5,41.2,29.23,West,266,14.9,20.5,39,-99.99,,,0.00,401.1,rob ver 1B,2013-10-08 15:55:00,
2013-10-08 08:56:00,66.5,41.3,29.23,West,263,13.8,19.0,39,-99.99,,,0.00,416.6,rob ver 1B,2013-10-08 15:56:00,
2013-10-08 08:57:00,66.6,41.2,29.23,West,271,12.9,16.0,39,-99.99,,,0.00,392.7,rob ver 1B,2013-10-08 15:57:00,
2013-10-08 08:58:00,66.7,41.3,29.23,West,264,11.8,13.6,39,-99.99,,,0.00,429.3,rob ver 1B,2013-10-08 15:58:00,
2013-10-08 08:59:00,66.9,41.2,29.23,West,268,12.8,16.2,39,-99.99,,,0.00,420.9,rob ver 1B,2013-10-08 15:59:00,
2013-10-08 09:00:00,66.9,41.2,29.23,West,272,14.8,19.4,39,-99.99,,,0.00,452.8,rob ver 1B,2013-10-08 16:00:00,
2013-10-08 09:01:00,66.7,41.3,29.23,WSW,254,13.7,17.9,39,-99.99,,,0.00,458.7,rob ver 1B,2013-10-08 16:01:00,
2013-10-08 09:02:00,66.7,41.3,29.23,WSW,256,13.4,17.0,39,-99.99,,,0.00,459.8,rob ver 1B,2013-10-08 16:02:00,
2013-10-08 09:03:00,66.6,41.4,29.23,WSW,258,11.5,14.2,39,-99.99,,,0.00,462,rob ver 1B,2013-10-08 16:03:00,
2013-10-08 09:04:00,66.7,41.4,29.23,WSW,254,11.3,15.8,39,-99.99,,,0.00,459.5,rob ver 1B,2013-10-08 16:04:00,
2013-10-08 09:05:00,67.1,41.4,29.23,WSW,249,11.0,13.4,38,-99.99,,,0.00,459.7,rob ver 1B,2013-10-08 16:05:00,
2013-10-08 09:06:00,67.3,41.2,29.23,West,259,12.9,18.4,39,-99.99,,,0.00,466.8,rob ver 1B,2013-10-08 16:06:00,
2013-10-08 09:07:00,67.1,41.3,29.23,SW,235,13.3,17.7,38,-99.99,,,0.00,469.4,rob ver 1B,2013-10-08 16:07:00,
2013-10-08 09:08:00,67.2,41.3,29.23,SW,233,13.8,16.5,38,-99.99,,,0.00,472.7,rob ver 1B,2013-10-08 16:08:00,
2013-10-08 09:09:00,67.2,41.2,29.23,SW,233,14.0,16.9,38,-99.99,,,0.00,474.8,rob ver 1B,2013-10-08 16:09:00,
2013-10-08 09:10:00,67.2,41.2,29.23,SW,226,12.5,15.1,38,-99.99,,,0.00,476.8,rob ver 1B,2013-10-08 16:10:00,
2013-10-08 09:11:00,67.2,41.4,29.23,WSW,239,13.7,16.6,38,-99.99,,,0.00,478,rob ver 1B,2013-10-08 16:11:00,
2013-10-08 09:12:00,67.2,41.4,29.23,WSW,244,12.2,15.9,38,-99.99,,,0.00,482.4,rob ver 1B,2013-10-08 16:12:00,
2013-10-08 09:13:00,67.2,41.3,29.23,WSW,246,12.1,15.2,38,-99.99,,,0.00,486.4,rob ver 1B,2013-10-08 16:13:00,
2013-10-08 09:14:00,67.1,41.4,29.23,WSW,246,10.7,13.3,38,-99.99,,,0.00,489.7,rob ver 1B,2013-10-08 16:14:00,
2013-10-08 09:15:00,67.2,41.4,29.23,West,262,10.3,12.5,38,-99.99,,,0.00,494.1,rob ver 1B,2013-10-08 16:15:00,
2013-10-08 09:16:00,67.5,41.2,29.23,WSW,255,13.7,20.1,37,-99.99,,,0.00,495.3,rob ver 1B,2013-10-08 16:16:00,
2013-10-08 09:17:00,67.5,40.9,29.23,WSW,240,14.7,19.4,37,-99.99,,,0.00,499.7,rob ver 1B,2013-10-08 16:17:00,
2013-10-08 09:18:00,67.6,40.9,29.23,SW,234,14.7,17.4,37,-99.99,,,0.00,500.4,rob ver 1B,2013-10-08 16:18:00,
2013-10-08 09:19:00,67.6,40.8,29.23,WSW,240,13.9,17.2,37,-99.99,,,0.00,504.5,rob ver 1B,2013-10-08 16:19:00,
2013-10-08 09:20:00,67.5,41.0,29.23,SW,227,14.2,17.8,38,-99.99,,,0.00,505.7,rob ver 1B,2013-10-08 16:20:00,
2013-10-08 09:21:00,67.4,41.1,29.23,WSW,243,13.9,16.2,37,-99.99,,,0.00,507.3,rob ver 1B,2013-10-08 16:21:00,
2013-10-08 09:22:00,67.4,41.2,29.23,WSW,244,12.3,15.6,38,-99.99,,,0.00,509.4,rob ver 1B,2013-10-08 16:22:00,
2013-10-08 09:23:00,67.6,41.0,29.23,WSW,244,13.0,15.5,37,-99.99,,,0.00,515.2,rob ver 1B,2013-10-08 16:23:00,
2013-10-08 09:24:00,67.7,40.8,29.23,SW,225,14.1,18.2,37,-99.99,,,0.00,517.9,rob ver 1B,2013-10-08 16:24:00,
2013-10-08 09:25:00,67.9,40.8,29.23,SW,228,15.3,18.0,37,-99.99,,,0.00,521.6,rob ver 1B,2013-10-08 16:25:00,
2013-10-08 09:26:00,67.7,41.0,29.23,SW,228,13.0,15.9,37,-99.99,,,0.00,521.6,rob ver 1B,2013-10-08 16:26:00,
2013-10-08 09:27:00,67.8,41.0,29.23,SW,234,12.7,16.5,37,-99.99,,,0.00,524.4,rob ver 1B,2013-10-08 16:27:00,
2013-10-08 09:28:00,67.9,40.7,29.23,SW,234,15.4,18.9,36,-99.99,,,0.00,528.7,rob ver 1B,2013-10-08 16:28:00,
2013-10-08 09:29:00,67.9,40.5,29.23,SW,232,16.6,20.7,36,-99.99,,,0.00,530.5,rob ver 1B,2013-10-08 16:29:00,
2013-10-08 09:30:00,67.8,40.5,29.23,WSW,243,13.3,17.9,37,-99.99,,,0.00,534.2,rob ver 1B,2013-10-08 16:30:00,
2013-10-08 09:31:00,68.0,40.7,29.23,WSW,249,12.5,14.6,36,-99.99,,,0.00,534,rob ver 1B,2013-10-08 16:31:00,
2013-10-08 09:32:00,68.3,40.8,29.23,WSW,239,12.6,16.0,35,-99.99,,,0.00,538.1,rob ver 1B,2013-10-08 16:32:00,
2013-10-08 09:33:00,68.3,40.5,29.23,WSW,238,11.4,13.8,36,-99.99,,,0.00,538.3,rob ver 1B,2013-10-08 16:33:00,
2013-10-08 09:34:00,78.8,22.0,29.32,SSE,168,4.8,6.2,11,-99.99,,,0.00,551,rob ver 1A,2013-10-08 16:34:00,
2013-10-08 09:35:00,78.8,21.8,29.32,SSE,166,2.4,3.7,11,-99.99,,,0.00,553.6,rob ver 1A,2013-10-08 16:35:00,
2013-10-08 09:36:00,68.6,40.3,29.23,WSW,249,12.1,13.9,36,-99.99,,,0.00,541.6,rob ver 1B,2013-10-08 16:36:00,
2013-10-08 09:37:00,79.1,21.2,29.32,SE,145,3.0,4.5,11,-99.99,,,0.00,559.2,rob ver 1A,2013-10-08 16:37:00,
2013-10-08 09:38:00,79.2,21.4,29.32,SSW,193,3.8,4.9,11,-99.99,,,0.00,562,rob ver 1A,2013-10-08 16:38:00,
2013-10-08 09:39:00,79.4,21.9,29.32,SSE,159,3.2,4.3,11,-99.99,,,0.00,564.5,rob ver 1A,2013-10-08 16:39:00,
2013-10-08 09:40:00,68.5,40.2,29.23,WSW,249,10.5,12.8,35,-99.99,,,0.00,553,rob ver 1B,2013-10-08 16:40:00,
2013-10-08 09:41:00,68.9,40.0,29.23,WSW,258,11.3,14.9,34,-99.99,,,0.00,553,rob ver 1B,2013-10-08 16:41:00,
2013-10-08 09:42:00,68.8,39.9,29.23,WSW,258,11.9,16.2,35,-99.99,,,0.00,555.8,rob ver 1B,2013-10-08 16:42:00,
2013-10-08 09:43:00,68.6,39.9,29.23,WSW,249,12.3,16.1,34,-99.99,,,0.00,556.8,rob ver 1B,2013-10-08 16:43:00,
2013-10-08 09:44:00,80.2,22.3,29.32,SW,226,1.6,2.1,11,-99.99,,,0.00,578.3,rob ver 1A,2013-10-08 16:44:00,
2013-10-08 09:45:00,68.8,39.7,29.23,SW,230,12.5,16.3,34,-99.99,,,0.00,561.9,rob ver 1B,2013-10-08 16:45:00,
2013-10-08 09:46:00,68.8,39.7,29.23,SW,233,13.1,15.6,34,-99.99,,,0.00,561.4,rob ver 1B,2013-10-08 16:46:00,
2013-10-08 09:47:00,68.8,39.8,29.23,WSW,243,13.0,17.6,34,-99.99,,,0.00,562.4,rob ver 1B,2013-10-08 16:47:00,
2013-10-08 09:48:00,69.1,39.4,29.23,WSW,254,14.1,18.0,33,-99.99,,,0.00,566.8,rob ver 1B,2013-10-08 16:48:00,
2013-10-08 09:49:00,80.5,21.4,29.35,SSW,202,2.8,3.8,11,-99.99,,,0.00,590.7,rob ver 1A,2013-10-08 16:49:00,
2013-10-08 09:50:00,69.4,39.6,29.23,WSW,251,9.3,12.0,33,-99.99,,,0.00,578,rob ver 1B,2013-10-08 16:50:00,
2013-10-08 09:51:00,69.8,39.8,29.23,WSW,243,11.0,14.2,33,-99.99,,,0.00,577,rob ver 1B,2013-10-08 16:51:00,
2013-10-08 09:52:00,70.0,39.5,29.23,WSW,255,14.6,17.7,32,-99.99,,,0.00,585.6,rob ver 1B,2013-10-08 16:52:00,
2013-10-08 09:53:00,69.9,39.5,29.23,WSW,244,12.7,16.5,32,-99.99,,,0.00,588.6,rob ver 1B,2013-10-08 16:53:00,
2013-10-08 09:54:00,80.7,21.8,29.32,SSW,207,3.2,4.7,11,-99.99,,,0.00,603.7,rob ver 1A,2013-10-08 16:54:00,
2013-10-08 09:55:00,69.7,39.2,29.23,WSW,247,14.0,16.2,32,-99.99,,,0.00,593.9,rob ver 1B,2013-10-08 16:55:00,
2013-10-08 09:56:00,69.6,39.2,29.23,WSW,240,13.5,18.2,32,-99.99,,,0.00,593.2,rob ver 1B,2013-10-08 16:56:00,
2013-10-08 09:57:00,69.6,39.3,29.23,WSW,244,13.6,16.5,32,-99.99,,,0.00,598.3,rob ver 1B,2013-10-08 16:57:00,
2013-10-08 09:58:00,69.5,39.3,29.23,SW,236,12.4,14.5,33,-99.99,,,0.00,600.6,rob ver 1B,2013-10-08 16:58:00,
2013-10-08 09:59:00,69.4,39.4,29.23,WSW,241,12.1,17.9,32,-99.99,,,0.00,601.1,rob ver 1B,2013-10-08 16:59:00,
2013-10-08 10:00:00,80.9,22.1,29.32,SSE,168,3.3,4.5,11,-99.99,,,0.00,614.9,rob ver 1A,2013-10-08 17:00:00,
2013-10-08 10:01:00,69.7,39.3,29.23,WSW,244,14.8,18.2,32,-99.99,,,0.00,605.9,rob ver 1B,2013-10-08 17:01:00,
2013-10-08 10:02:00,69.9,39.2,29.23,WSW,257,15.7,19.4,32,-99.99,,,0.00,612.2,rob ver 1B,2013-10-08 17:02:00,
2013-10-08 10:03:00,69.8,39.2,29.23,West,261,15.8,19.2,32,-99.99,,,0.00,611.2,rob ver 1B,2013-10-08 17:03:00,
2013-10-08 10:04:00,69.7,39.0,29.23,West,265,18.5,21.1,32,-99.99,,,0.00,619.3,rob ver 1B,2013-10-08 17:04:00,
2013-10-08 10:05:00,81.4,22.1,29.32,SE,137,0.4,0.9,11,-99.99,,,0.00,626.7,rob ver 1A,2013-10-08 17:05:00,
2013-10-08 10:06:00,69.6,38.6,29.23,WSW,253,17.8,22.5,31,-99.99,,,0.00,622.7,rob ver 1B,2013-10-08 17:06:00,
2013-10-08 10:07:00,69.6,38.2,29.23,WSW,258,18.4,22.3,32,-99.99,,,0.00,625.5,rob ver 1B,2013-10-08 17:07:00,
2013-10-08 10:08:00,69.8,38.5,29.23,WSW,255,18.6,22.5,31,-99.99,,,0.00,624.5,rob ver 1B,2013-10-08 17:08:00,
2013-10-08 10:09:00,69.8,38.7,29.23,WSW,240,15.6,20.0,31,-99.99,,,0.00,628.3,rob ver 1B,2013-10-08 17:09:00,
2013-10-08 10:10:00,83.0,21.9,29.32,South,181,3.1,4.9,10,-99.99,,,0.00,637.9,rob ver 1A,2013-10-08 17:10:00,
2013-10-08 10:11:00,69.9,38.6,29.23,WSW,249,14.9,19.0,31,-99.99,,,0.00,634.4,rob ver 1B,2013-10-08 17:11:00,
2013-10-08 10:12:00,70.2,38.6,29.23,WSW,237,14.6,20.0,31,-99.99,,,0.00,634.2,rob ver 1B,2013-10-08 17:12:00,
2013-10-08 10:13:00,70.5,38.6,29.23,WSW,250,13.7,18.4,31,-99.99,,,0.00,641.1,rob ver 1B,2013-10-08 17:13:00,
2013-10-08 10:14:00,70.3,38.5,29.23,WSW,243,16.3,22.7,30,-99.99,,,0.00,644.8,rob ver 1B,2013-10-08 17:14:00,
2013-10-08 10:15:00,82.1,22.0,29.32,SE,144,3.2,5.1,10,-99.99,,,0.00,650.1,rob ver 1A,2013-10-08 17:15:00,
2013-10-08 10:16:00,69.9,38.5,29.23,WSW,245,13.8,16.3,31,-99.99,,,0.00,654.1,rob ver 1B,2013-10-08 17:16:00,
2013-10-08 10:17:00,70.2,38.6,29.23,WSW,247,12.4,15.5,31,-99.99,,,0.00,653.7,rob ver 1B,2013-10-08 17:17:00,
2013-10-08 10:18:00,70.6,38.5,29.23,WSW,238,10.7,13.9,30,-99.99,,,0.00,665.5,rob ver 1B,2013-10-08 17:18:00,
2013-10-08 10:19:00,71.0,38.6,29.23,WSW,253,11.2,14.2,30,-99.99,,,0.00,666.7,rob ver 1B,2013-10-08 17:19:00,
2013-10-08 10:20:00,82.3,21.2,29.32,SSW,194,2.8,5.1,10,-99.99,,,0.00,660.3,rob ver 1A,2013-10-08 17:20:00,
2013-10-08 10:21:00,71.2,38.2,29.23,SW,235,12.4,16.3,29,-99.99,,,0.00,676.2,rob ver 1B,2013-10-08 17:21:00,
2013-10-08 10:22:00,71.2,38.3,29.23,SW,233,13.2,17.0,30,-99.99,,,0.00,681.4,rob ver 1B,2013-10-08 17:22:00,
2013-10-08 10:23:00,71.0,38.4,29.23,SW,229,12.1,15.5,30,-99.99,,,0.00,690.9,rob ver 1B,2013-10-08 17:23:00,
2013-10-08 10:24:00,70.9,38.3,29.23,SW,233,15.3,19.4,30,-99.99,,,0.00,698.5,rob ver 1B,2013-10-08 17:24:00,
2013-10-08 10:25:00,82.2,20.4,29.32,SE,131,4.1,5.6,10,-99.99,,,0.00,671.5,rob ver 1A,2013-10-08 17:25:00,
2013-10-08 10:26:00,70.8,38.2,29.23,WSW,255,15.9,22.0,30,-99.99,,,0.00,711,rob ver 1B,2013-10-08 17:26:00,
2013-10-08 10:27:00,71.2,38.2,29.23,SW,230,16.0,20.2,29,-99.99,,,0.00,719,rob ver 1B,2013-10-08 17:27:00,
2013-10-08 10:28:00,71.2,38.1,29.23,WSW,241,16.7,20.5,29,-99.99,,,0.00,729,rob ver 1B,2013-10-08 17:28:00,
2013-10-08 10:29:00,71.1,37.8,29.23,WSW,246,15.6,19.1,29,-99.99,,,0.00,742,rob ver 1B,2013-10-08 17:29:00,
2013-10-08 10:30:00,81.8,20.7,29.32,SE,140,4.5,5.6,10,-99.99,,,0.00,681,rob ver 1A,2013-10-08 17:30:00,
2013-10-08 10:31:00,70.7,38.0,29.23,WSW,243,10.5,15.1,30,-99.99,,,0.00,771,rob ver 1B,2013-10-08 17:31:00,
2013-10-08 10:32:00,70.9,38.1,29.23,WSW,240,12.5,16.9,29,-99.99,,,0.00,755,rob ver 1B,2013-10-08 17:32:00,
2013-10-08 10:33:00,71.2,37.9,29.23,WSW,255,16.4,19.4,29,-99.99,,,0.00,803,rob ver 1B,2013-10-08 17:33:00,
2013-10-08 10:34:00,71.4,37.9,29.23,WSW,252,14.3,18.6,29,-99.99,,,0.00,787,rob ver 1B,2013-10-08 17:34:00,
2013-10-08 10:35:00,82.0,20.9,29.32,SSE,147,4.9,8.6,10,-99.99,,,0.00,691.6,rob ver 1A,2013-10-08 17:35:00,
2013-10-08 10:36:00,71.3,37.9,29.23,WSW,245,15.4,18.0,29,-99.99,,,0.00,635.1,rob ver 1B,2013-10-08 17:36:00,
2013-10-08 10:37:00,71.4,37.8,29.23,WSW,246,13.4,16.0,28,-99.99,,,0.00,704,rob ver 1B,2013-10-08 17:37:00,
2013-10-08 10:38:00,71.7,37.7,29.23,SW,236,13.2,18.0,28,-99.99,,,0.00,675.7,rob ver 1B,2013-10-08 17:38:00,
2013-10-08 10:39:00,72.1,37.6,29.23,SW,236,17.9,22.1,28,-99.99,,,0.00,712,rob ver 1B,2013-10-08 17:39:00,
2013-10-08 10:40:00,82.4,20.6,29.32,SSE,148,3.9,5.2,10,-99.99,,,0.00,701,rob ver 1A,2013-10-08 17:40:00,
2013-10-08 10:41:00,71.8,37.8,29.23,SW,229,16.7,20.4,29,-99.99,,,0.00,615.8,rob ver 1B,2013-10-08 17:41:00,
2013-10-08 10:42:00,71.8,37.9,29.23,SW,227,18.2,23.3,28,-99.99,,,0.00,586.2,rob ver 1B,2013-10-08 17:42:00,
2013-10-08 10:43:00,71.9,37.8,29.23,SW,221,19.8,22.6,28,-99.99,,,0.00,598.5,rob ver 1B,2013-10-08 17:43:00,
2013-10-08 10:44:00,71.7,37.8,29.23,SW,226,17.0,20.6,28,-99.99,,,0.00,711,rob ver 1B,2013-10-08 17:44:00,
2013-10-08 10:45:00,71.7,37.9,29.23,SW,223,16.5,20.8,29,-99.99,,,0.00,787,rob ver 1B,2013-10-08 17:45:00,
2013-10-08 10:46:00,82.6,21.4,29.32,SE,144,6.1,8.0,10,-99.99,,,0.00,711,rob ver 1A,2013-10-08 17:46:00,
2013-10-08 10:47:00,72.3,37.8,29.23,SW,218,18.0,21.6,28,-99.99,,,0.00,791,rob ver 1B,2013-10-08 17:47:00,
2013-10-08 10:48:00,72.2,38.1,29.23,SW,229,15.7,19.8,28,-99.99,,,0.00,762,rob ver 1B,2013-10-08 17:48:00,
2013-10-08 10:49:00,72.3,38.0,29.23,SW,231,16.6,20.7,28,-99.99,,,0.00,739,rob ver 1B,2013-10-08 17:49:00,
2013-10-08 10:50:00,72.3,37.6,29.23,SW,234,18.2,21.3,27,-99.99,,,0.00,706,rob ver 1B,2013-10-08 17:50:00,
2013-10-08 10:51:00,83.2,20.0,29.32,South,172,6.1,8.1,9,-99.99,,,0.00,718,rob ver 1A,2013-10-08 17:51:00,
2013-10-08 10:52:00,72.2,37.9,29.23,SW,236,16.4,20.4,28,-99.99,,,0.00,762,rob ver 1B,2013-10-08 17:52:00,
2013-10-08 10:53:00,72.2,38.1,29.23,SW,228,18.9,21.8,29,-99.99,,,0.00,608.9,rob ver 1B,2013-10-08 17:53:00,
2013-10-08 10:54:00,72.0,38.0,29.23,SW,226,18.4,23.2,29,-99.99,,,0.00,555.6,rob ver 1B,2013-10-08 17:54:00,
2013-10-08 10:55:00,71.9,38.3,29.23,SW,234,15.3,19.6,29,-99.99,,,0.00,522.5,rob ver 1B,2013-10-08 17:55:00,
2013-10-08 10:56:00,82.6,20.5,29.32,SSE,151,4.5,6.2,10,-99.99,,,0.00,726,rob ver 1A,2013-10-08 17:56:00,
2013-10-08 10:57:00,72.0,38.1,29.23,WSW,239,15.4,21.1,29,-99.99,,,0.00,786,rob ver 1B,2013-10-08 17:57:00,
2013-10-08 10:58:00,72.0,38.3,29.23,SW,229,14.3,19.3,29,-99.99,,,0.00,702,rob ver 1B,2013-10-08 17:58:00,
2013-10-08 10:59:00,72.2,38.5,29.23,SW,222,13.9,17.4,28,-99.99,,,0.00,692.3,rob ver 1B,2013-10-08 17:59:00,
2013-10-08 11:00:00,72.5,38.2,29.23,SW,219,16.1,20.2,28,-99.99,,,0.00,566.8,rob ver 1B,2013-10-08 18:00:00,
2013-10-08 11:01:00,83.5,21.0,29.32,SSE,167,5.3,8.5,10,-99.99,,,0.00,734,rob ver 1A,2013-10-08 18:01:00,
2013-10-08 11:02:00,73.2,37.9,29.23,SW,229,16.6,21.3,27,-99.99,,,0.00,568.8,rob ver 1B,2013-10-08 18:02:00,
2013-10-08 11:03:00,73.0,37.8,29.23,SW,227,16.2,20.6,27,-99.99,,,0.00,575.6,rob ver 1B,2013-10-08 18:03:00,
2013-10-08 11:04:00,72.9,37.7,29.23,SW,221,16.6,20.6,27,-99.99,,,0.00,596.4,rob ver 1B,2013-10-08 18:04:00,
2013-10-08 11:05:00,72.7,37.8,29.23,SW,227,16.9,19.9,28,-99.99,,,0.00,614.5,rob ver 1B,2013-10-08 18:05:00,
2013-10-08 11:06:00,83.9,21.2,29.32,SSE,168,5.1,9.6,9,-99.99,,,0.00,740,rob ver 1A,2013-10-08 18:06:00,
2013-10-08 11:07:00,72.6,37.9,29.23,SW,230,15.4,21.6,28,-99.99,,,0.00,704,rob ver 1B,2013-10-08 18:07:00,
2013-10-08 11:08:00,72.5,38.5,29.23,SW,232,16.2,23.1,28,-99.99,,,0.00,744,rob ver 1B,2013-10-08 18:08:00,
2013-10-08 11:09:00,72.8,38.1,29.23,WSW,247,17.1,22.2,28,-99.99,,,0.00,762,rob ver 1B,2013-10-08 18:09:00,
2013-10-08 11:10:00,72.8,38.2,29.23,SW,236,17.1,20.8,28,-99.99,,,0.00,752,rob ver 1B,2013-10-08 18:10:00,
2013-10-08 11:11:00,84.3,21.4,29.32,SSW,207,5.4,8.9,9,-99.99,,,0.00,749,rob ver 1A,2013-10-08 18:11:00,
2013-10-08 11:12:00,73.0,37.3,29.23,SW,222,18.7,22.8,27,-99.99,,,0.00,603.3,rob ver 1B,2013-10-08 18:12:00,
2013-10-08 11:13:00,72.6,37.6,29.23,SW,224,15.1,18.9,27,-99.99,,,0.00,535.5,rob ver 1B,2013-10-08 18:13:00,
2013-10-08 11:14:00,72.8,37.8,29.23,SW,224,15.8,20.4,27,-99.99,,,0.00,613,rob ver 1B,2013-10-08 18:14:00,
2013-10-08 11:15:00,72.8,37.9,29.23,SW,229,15.9,21.3,28,-99.99,,,0.00,540.1,rob ver 1B,2013-10-08 18:15:00,
2013-10-08 11:16:00,84.1,20.1,29.32,South,179,5.3,7.4,9,-99.99,,,0.00,755,rob ver 1A,2013-10-08 18:16:00,
2013-10-08 11:17:00,72.2,37.4,29.23,SW,216,19.2,22.3,28,-99.99,,,0.00,444.8,rob ver 1B,2013-10-08 18:17:00,
2013-10-08 11:18:00,72.1,37.7,29.23,SW,234,13.1,18.3,28,-99.99,,,0.00,334.4,rob ver 1B,2013-10-08 18:18:00,
2013-10-08 11:19:00,72.3,37.2,29.23,SW,225,15.6,21.5,27,-99.99,,,0.00,513.6,rob ver 1B,2013-10-08 18:19:00,
2013-10-08 11:20:00,72.3,37.0,29.23,SW,225,16.4,19.3,27,-99.99,,,0.00,516.4,rob ver 1B,2013-10-08 18:20:00,
2013-10-08 11:21:00,72.2,37.0,29.23,SSW,210,16.8,20.1,27,-99.99,,,0.00,620.4,rob ver 1B,2013-10-08 18:21:00,
2013-10-08 11:22:00,84.6,19.9,29.32,SSW,213,4.6,6.4,9,-99.99,,,0.00,759,rob ver 1A,2013-10-08 18:22:00,
2013-10-08 11:23:00,72.0,37.1,29.23,SW,220,18.1,21.0,27,-99.99,,,0.00,530.4,rob ver 1B,2013-10-08 18:23:00,
2013-10-08 11:24:00,71.7,37.0,29.23,SW,227,16.9,20.8,28,-99.99,,,0.00,661.1,rob ver 1B,2013-10-08 18:24:00,
2013-10-08 11:25:00,71.7,37.4,29.23,SW,227,17.8,20.8,28,-99.99,,,0.00,618.4,rob ver 1B,2013-10-08 18:25:00,
2013-10-08 11:26:00,71.9,36.9,29.23,SW,215,15.1,18.7,27,-99.99,,,0.00,585.1,rob ver 1B,2013-10-08 18:26:00,
2013-10-08 11:27:00,84.6,18.8,29.32,WSW,241,3.9,5.5,8,-99.99,,,0.00,766,rob ver 1A,2013-10-08 18:27:00,
2013-10-08 11:28:00,71.9,37.1,29.23,SW,222,15.6,20.2,27,-99.99,,,0.00,599.6,rob ver 1B,2013-10-08 18:28:00,
2013-10-08 11:29:00,72.0,37.0,29.23,SW,226,16.2,20.5,27,-99.99,,,0.00,380.7,rob ver 1B,2013-10-08 18:29:00,
2013-10-08 11:30:00,72.2,36.9,29.23,SW,226,12.5,15.7,27,-99.99,,,0.00,366,rob ver 1B,2013-10-08 18:30:00,
2013-10-08 11:31:00,72.2,36.9,29.23,SW,222,13.5,18.9,27,-99.99,,,0.00,367.7,rob ver 1B,2013-10-08 18:31:00,
2013-10-08 11:32:00,84.9,18.4,29.32,WSW,251,2.6,4.0,8,-99.99,,,0.00,771,rob ver 1A,2013-10-08 18:32:00,
2013-10-08 11:33:00,71.7,36.8,29.23,SW,218,15.1,20.4,27,-99.99,,,0.00,319.9,rob ver 1B,2013-10-08 18:33:00,
2013-10-08 11:34:00,71.5,36.7,29.23,SW,227,15.7,20.4,27,-99.99,,,0.00,421.6,rob ver 1B,2013-10-08 18:34:00,
2013-10-08 11:35:00,71.8,36.7,29.23,SW,217,16.3,20.8,27,-99.99,,,0.00,421.7,rob ver 1B,2013-10-08 18:35:00,
2013-10-08 11:36:00,71.7,36.7,29.23,SW,222,12.0,17.8,28,-99.99,,,0.00,732,rob ver 1B,2013-10-08 18:36:00,
2013-10-08 11:37:00,85.8,18.0,29.32,SE,130,4.3,5.4,8,-99.99,,,0.00,776,rob ver 1A,2013-10-08 18:37:00,
2013-10-08 11:38:00,71.4,36.8,29.23,WSW,239,14.3,17.6,28,-99.99,,,0.00,704,rob ver 1B,2013-10-08 18:38:00,
2013-10-08 11:39:00,71.4,36.8,29.23,WSW,246,8.7,11.3,28,-99.99,,,0.00,580.7,rob ver 1B,2013-10-08 18:39:00,
2013-10-08 11:40:00,71.7,37.0,29.23,WSW,248,10.7,15.5,28,-99.99,,,0.00,589.7,rob ver 1B,2013-10-08 18:40:00,
2013-10-08 11:41:00,72.2,36.9,29.23,SW,232,13.4,16.9,27,-99.99,,,0.00,612.8,rob ver 1B,2013-10-08 18:41:00,
2013-10-08 11:42:00,86.5,19.6,29.32,South,183,7.7,9.8,8,-99.99,,,0.00,781,rob ver 1A,2013-10-08 18:42:00,
2013-10-08 11:43:00,72.5,36.9,29.23,SW,224,13.6,17.2,27,-99.99,,,0.00,998,rob ver 1B,2013-10-08 18:43:00,
2013-10-08 11:44:00,72.9,37.1,29.23,SW,221,10.6,13.0,27,-99.99,,,0.00,550.7,rob ver 1B,2013-10-08 18:44:00,
2013-10-08 11:45:00,72.9,37.1,29.23,SW,219,13.4,17.2,27,-99.99,,,0.00,581.8,rob ver 1B,2013-10-08 18:45:00,
2013-10-08 11:46:00,72.9,37.0,29.23,SSW,213,12.4,16.8,26,-99.99,,,0.00,859,rob ver 1B,2013-10-08 18:46:00,
2013-10-08 11:47:00,86.0,18.3,29.32,South,185,6.5,7.5,7,-99.99,,,0.00,785,rob ver 1A,2013-10-08 18:47:00,
2013-10-08 11:48:00,72.6,37.1,29.23,SW,229,10.3,13.5,27,-99.99,,,0.00,541.3,rob ver 1B,2013-10-08 18:48:00,
2013-10-08 11:49:00,72.5,37.0,29.23,SW,221,10.3,12.1,27,-99.99,,,0.00,481.8,rob ver 1B,2013-10-08 18:49:00,
2013-10-08 11:50:00,72.6,36.9,29.23,SW,226,8.8,11.3,27,-99.99,,,0.00,643.5,rob ver 1B,2013-10-08 18:50:00,
2013-10-08 11:51:00,72.6,37.2,29.23,WSW,258,6.2,9.5,27,-99.99,,,0.00,817,rob ver 1B,2013-10-08 18:51:00,
2013-10-08 11:52:00,85.3,17.8,29.29,ESE,103,2.9,5.9,8,-99.99,,,0.00,787,rob ver 1A,2013-10-08 18:52:00,
2013-10-08 11:53:00,73.2,37.2,29.21,WSW,252,13.0,17.0,27,-99.99,,,0.00,448.5,rob ver 1B,2013-10-08 18:53:00,
2013-10-08 11:54:00,73.3,37.2,29.21,WSW,255,15.2,24.8,26,-99.99,,,0.00,511.9,rob ver 1B,2013-10-08 18:54:00,
2013-10-08 11:55:00,73.5,36.8,29.21,SSW,213,13.5,19.5,26,-99.99,,,0.00,609.9,rob ver 1B,2013-10-08 18:55:00,
2013-10-08 11:56:00,74.0,36.4,29.21,SSW,199,14.0,17.6,26,-99.99,,,0.00,590.4,rob ver 1B,2013-10-08 18:56:00,
2013-10-08 11:57:00,86.1,18.2,29.29,SSE,161,3.4,4.7,8,-99.99,,,0.00,789,rob ver 1A,2013-10-08 18:57:00,
2013-10-08 11:58:00,74.2,37.3,29.21,SSW,194,13.1,16.5,26,-99.99,,,0.00,790,rob ver 1B,2013-10-08 18:58:00,
2013-10-08 11:59:00,74.0,37.4,29.21,SSW,209,11.6,14.0,26,-99.99,,,0.00,481.4,rob ver 1B,2013-10-08 18:59:00,
2013-10-08 12:00:00,73.5,37.5,29.21,SW,231,13.9,16.5,27,-99.99,,,0.00,911,rob ver 1B,2013-10-08 19:00:00,
2013-10-08 12:01:00,73.3,37.6,29.21,SSW,211,9.3,12.7,27,-99.99,,,0.00,883,rob ver 1B,2013-10-08 19:01:00,
2013-10-08 12:02:00,86.5,19.8,29.29,SSW,195,7.3,9.8,8,-99.99,,,0.00,790,rob ver 1A,2013-10-08 19:02:00,
2013-10-08 12:03:00,73.8,37.4,29.21,SW,225,8.9,11.8,26,-99.99,,,0.00,866,rob ver 1B,2013-10-08 19:03:00,
2013-10-08 12:04:00,73.7,37.0,29.21,SW,214,13.2,18.6,26,-99.99,,,0.00,708,rob ver 1B,2013-10-08 19:04:00,
2013-10-08 12:05:00,73.7,36.6,29.21,SW,216,14.8,17.7,25,-99.99,,,0.00,744,rob ver 1B,2013-10-08 19:05:00,
2013-10-08 12:06:00,73.8,36.5,29.21,SSW,212,15.9,19.8,25,-99.99,,,0.00,540.9,rob ver 1B,2013-10-08 19:06:00,
2013-10-08 12:07:00,86.6,20.7,29.29,SSW,194,5.8,6.9,8,-99.99,,,0.00,792,rob ver 1A,2013-10-08 19:07:00,
2013-10-08 12:08:00,73.6,36.4,29.21,SSW,203,6.5,8.1,25,-99.99,,,0.00,846,rob ver 1B,2013-10-08 19:08:00,
2013-10-08 12:09:00,73.6,36.4,29.21,SW,223,7.7,11.3,26,-99.99,,,0.00,641.2,rob ver 1B,2013-10-08 19:09:00,
2013-10-08 12:10:00,73.6,36.3,29.21,WSW,238,9.2,11.5,25,-99.99,,,0.00,836,rob ver 1B,2013-10-08 19:10:00,
2013-10-08 12:11:00,73.9,36.8,29.21,SW,220,11.2,21.2,26,-99.99,,,0.00,826,rob ver 1B,2013-10-08 19:11:00,
2013-10-08 12:12:00,74.2,37.0,29.21,SW,219,17.2,19.9,25,-99.99,,,0.00,822,rob ver 1B,2013-10-08 19:12:00,
2013-10-08 12:13:00,87.2,22.1,29.29,SSW,207,7.0,9.4,9,-99.99,,,0.00,792,rob ver 1A,2013-10-08 19:13:00,
2013-10-08 12:14:00,73.7,37.3,29.21,South,190,11.0,15.5,26,-99.99,,,0.00,767,rob ver 1B,2013-10-08 19:14:00,
2013-10-08 12:15:00,73.6,37.5,29.21,SW,217,10.2,15.9,26,-99.99,,,0.00,753,rob ver 1B,2013-10-08 19:15:00,
2013-10-08 12:16:00,73.6,37.5,29.21,WSW,237,13.3,19.6,27,-99.99,,,0.00,803,rob ver 1B,2013-10-08 19:16:00,
2013-10-08 12:17:00,73.4,37.6,29.21,SSW,209,10.3,12.9,27,-99.99,,,0.00,809,rob ver 1B,2013-10-08 19:17:00,
2013-10-08 12:18:00,86.8,22.9,29.29,SSW,204,1.6,3.2,9,-99.99,,,0.00,791,rob ver 1A,2013-10-08 19:18:00,
2013-10-08 12:19:00,74.2,37.4,29.21,SSW,211,11.9,16.7,25,-99.99,,,0.00,810,rob ver 1B,2013-10-08 19:19:00,
2013-10-08 12:20:00,74.6,36.5,29.21,SSW,193,13.7,18.5,25,-99.99,,,0.00,817,rob ver 1B,2013-10-08 19:20:00,
2013-10-08 12:21:00,74.4,36.6,29.21,SSW,211,11.4,15.4,25,-99.99,,,0.00,799,rob ver 1B,2013-10-08 19:21:00,
2013-10-08 12:22:00,74.4,36.4,29.21,SW,215,12.2,14.4,25,-99.99,,,0.00,788,rob ver 1B,2013-10-08 19:22:00,
2013-10-08 12:23:00,87.3,23.0,29.29,West,270,2.0,4.0,9,-99.99,,,0.00,793,rob ver 1A,2013-10-08 19:23:00,
2013-10-08 12:24:00,74.3,36.5,29.21,SSW,207,10.3,12.9,25,-99.99,,,0.00,794,rob ver 1B,2013-10-08 19:24:00,
2013-10-08 12:25:00,74.3,36.7,29.21,SW,228,14.3,18.0,25,-99.99,,,0.00,792,rob ver 1B,2013-10-08 19:25:00,
2013-10-08 12:26:00,74.5,36.6,29.21,SW,235,15.2,21.4,24,-99.99,,,0.00,795,rob ver 1B,2013-10-08 19:26:00,
2013-10-08 12:27:00,74.7,36.7,29.21,SW,233,14.2,17.5,24,-99.99,,,0.00,802,rob ver 1B,2013-10-08 19:27:00,
2013-10-08 12:28:00,87.8,23.2,29.29,SE,135,2.5,3.9,9,-99.99,,,0.00,791,rob ver 1A,2013-10-08 19:28:00,
2013-10-08 12:29:00,74.2,36.9,29.21,SW,234,9.5,12.3,25,-99.99,,,0.00,696.9,rob ver 1B,2013-10-08 19:29:00,
2013-10-08 12:30:00,73.8,36.9,29.21,SW,230,8.7,11.9,26,-99.99,,,0.00,692.1,rob ver 1B,2013-10-08 19:30:00,
2013-10-08 12:31:00,73.6,37.0,29.21,SW,215,9.7,15.1,26,-99.99,,,0.00,784,rob ver 1B,2013-10-08 19:31:00,
2013-10-08 12:32:00,73.9,37.1,29.21,SSW,213,13.2,18.5,25,-99.99,,,0.00,637.7,rob ver 1B,2013-10-08 19:32:00,
2013-10-08 12:33:00,87.6,22.8,29.29,SSW,203,4.8,7.3,9,-99.99,,,0.00,791,rob ver 1A,2013-10-08 19:33:00,
2013-10-08 12:34:00,74.3,37.2,29.21,SW,214,8.1,10.6,26,-99.99,,,0.00,738,rob ver 1B,2013-10-08 19:34:00,
2013-10-08 12:35:00,74.8,37.2,29.21,West,260,10.0,12.2,25,-99.99,,,0.00,821,rob ver 1B,2013-10-08 19:35:00,
2013-10-08 12:36:00,75.1,37.1,29.21,WSW,239,12.2,17.1,24,-99.99,,,0.00,673.3,rob ver 1B,2013-10-08 19:36:00,
2013-10-08 12:37:00,74.9,37.0,29.21,WSW,237,14.7,17.2,25,-99.99,,,0.00,801,rob ver 1B,2013-10-08 19:37:00,
2013-10-08 12:38:00,86.8,22.6,29.29,SSE,158,5.6,8.8,9,-99.99,,,0.00,789,rob ver 1A,2013-10-08 19:38:00,
2013-10-08 12:39:00,74.2,36.7,29.21,SSW,209,13.1,18.2,24,-99.99,,,0.00,671.3,rob ver 1B,2013-10-08 19:39:00,
2013-10-08 12:40:00,74.4,36.4,29.21,South,184,9.8,13.3,25,-99.99,,,0.00,643.1,rob ver 1B,2013-10-08 19:40:00,
2013-10-08 12:41:00,74.5,36.6,29.21,SSW,202,11.2,16.1,25,-99.99,,,0.00,639.5,rob ver 1B,2013-10-08 19:41:00,
2013-10-08 12:42:00,74.6,37.2,29.21,SW,222,14.3,19.2,26,-99.99,,,0.00,765,rob ver 1B,2013-10-08 19:42:00,
2013-10-08 12:43:00,87.5,22.8,29.29,SW,223,1.8,3.3,9,-99.99,,,0.00,787,rob ver 1A,2013-10-08 19:43:00,
2013-10-08 12:44:00,74.1,37.6,29.21,SSW,213,7.1,10.6,26,-99.99,,,0.00,728,rob ver 1B,2013-10-08 19:44:00,
2013-10-08 12:45:00,74.1,37.5,29.21,SSW,204,5.8,10.2,26,-99.99,,,0.00,691.1,rob ver 1B,2013-10-08 19:45:00,
2013-10-08 12:46:00,74.1,37.5,29.21,SW,225,5.1,7.4,26,-99.99,,,0.00,693.1,rob ver 1B,2013-10-08 19:46:00,
2013-10-08 12:47:00,74.2,37.4,29.21,SW,219,8.3,21.0,26,-99.99,,,0.00,640.5,rob ver 1B,2013-10-08 19:47:00,
2013-10-08 12:48:00,87.8,22.5,29.26,WNW,287,2.0,4.0,9,-99.99,,,0.00,787,rob ver 1A,2013-10-08 19:48:00,
2013-10-08 12:49:00,74.5,37.4,29.21,SW,226,16.2,19.3,25,-99.99,,,0.00,628.8,rob ver 1B,2013-10-08 19:49:00,
2013-10-08 12:50:00,74.4,37.4,29.21,SW,220,12.6,17.6,26,-99.99,,,0.00,674,rob ver 1B,2013-10-08 19:50:00,
2013-10-08 12:51:00,74.2,37.1,29.21,SW,218,11.2,15.8,25,-99.99,,,0.00,739,rob ver 1B,2013-10-08 19:51:00,
2013-10-08 12:52:00,74.1,37.5,29.21,SW,223,10.2,14.9,26,-99.99,,,0.00,602.1,rob ver 1B,2013-10-08 19:52:00,
2013-10-08 12:53:00,74.4,37.0,29.21,SSW,200,11.6,16.2,25,-99.99,,,0.00,559.9,rob ver 1B,2013-10-08 19:53:00,
2013-10-08 12:54:00,87.2,23.2,29.26,SSE,148,6.5,8.7,9,-99.99,,,0.00,783,rob ver 1A,2013-10-08 19:54:00,
2013-10-08 12:55:00,74.6,36.9,29.21,SSW,203,16.8,20.4,25,-99.99,,,0.00,580.9,rob ver 1B,2013-10-08 19:55:00,
2013-10-08 12:56:00,74.6,36.8,29.21,SSW,206,17.0,19.2,25,-99.99,,,0.00,603.4,rob ver 1B,2013-10-08 19:56:00,
2013-10-08 12:57:00,74.4,36.9,29.21,SSW,210,12.6,16.7,25,-99.99,,,0.00,590.2,rob ver 1B,2013-10-08 19:57:00,
2013-10-08 12:58:00,74.2,36.9,29.21,SSW,211,10.4,13.9,25,-99.99,,,0.00,621,rob ver 1B,2013-10-08 19:58:00,
2013-10-08 12:59:00,87.2,23.2,29.26,SE,141,5.3,7.9,9,-99.99,,,0.00,779,rob ver 1A,2013-10-08 19:59:00,
2013-10-08 13:00:00,74.1,36.8,29.21,SW,227,9.7,11.6,25,-99.99,,,0.00,766,rob ver 1B,2013-10-08 20:00:00,
2013-10-08 13:01:00,74.2,36.6,29.21,WSW,238,8.7,11.4,25,-99.99,,,0.00,837,rob ver 1B,2013-10-08 20:01:00,
2013-10-08 13:02:00,74.1,36.8,29.21,WSW,254,7.8,9.6,25,-99.99,,,0.00,871,rob ver 1B,2013-10-08 20:02:00,
2013-10-08 13:03:00,74.3,36.6,29.21,West,268,8.1,12.2,25,-99.99,,,0.00,836,rob ver 1B,2013-10-08 20:03:00,
2013-10-08 13:04:00,87.3,24.6,29.26,SSE,154,6.3,9.7,10,-99.99,,,0.00,774,rob ver 1A,2013-10-08 20:04:00,
2013-10-08 13:05:00,74.8,36.8,29.21,SW,233,11.5,14.5,25,-99.99,,,0.00,800,rob ver 1B,2013-10-08 20:05:00,
2013-10-08 13:06:00,74.7,36.8,29.21,WSW,250,11.5,13.6,25,-99.99,,,0.00,733,rob ver 1B,2013-10-08 20:06:00,
2013-10-08 13:07:00,74.4,37.0,29.21,WSW,246,9.2,11.7,25,-99.99,,,0.00,660.2,rob ver 1B,2013-10-08 20:07:00,
2013-10-08 13:08:00,74.6,36.9,29.21,WSW,249,10.5,14.8,25,-99.99,,,0.00,712,rob ver 1B,2013-10-08 20:08:00,
2013-10-08 13:09:00,87.7,24.8,29.26,SSW,194,4.2,7.4,10,-99.99,,,0.00,770,rob ver 1A,2013-10-08 20:09:00,
2013-10-08 13:10:00,74.4,37.5,29.21,West,263,9.3,12.1,26,-99.99,,,0.00,659.4,rob ver 1B,2013-10-08 20:10:00,
2013-10-08 13:11:00,74.2,37.6,29.21,West,266,9.9,13.3,26,-99.99,,,0.00,591.5,rob ver 1B,2013-10-08 20:11:00,
2013-10-08 13:12:00,74.3,37.6,29.21,WSW,258,12.0,14.3,26,-99.99,,,0.00,578.9,rob ver 1B,2013-10-08 20:12:00,
2013-10-08 13:13:00,74.3,37.5,29.21,WSW,254,9.8,12.3,26,-99.99,,,0.00,545.1,rob ver 1B,2013-10-08 20:13:00,
2013-10-08 13:14:00,87.3,25.2,29.26,SE,135,4.5,8.7,10,-99.99,,,0.00,770,rob ver 1A,2013-10-08 20:14:00,
2013-10-08 13:15:00,74.2,37.5,29.21,SW,218,8.0,12.9,26,-99.99,,,0.00,519.3,rob ver 1B,2013-10-08 20:15:00,
2013-10-08 13:16:00,73.9,37.6,29.21,SW,222,7.2,11.1,26,-99.99,,,0.00,553.9,rob ver 1B,2013-10-08 20:16:00,
2013-10-08 13:17:00,73.9,37.6,29.21,SSW,204,9.2,12.7,26,-99.99,,,0.00,493.4,rob ver 1B,2013-10-08 20:17:00,
2013-10-08 13:18:00,74.0,37.5,29.21,SW,215,10.0,12.3,26,-99.99,,,0.00,573.5,rob ver 1B,2013-10-08 20:18:00,
2013-10-08 13:19:00,88.1,25.4,29.26,South,187,4.3,7.5,10,-99.99,,,0.00,764,rob ver 1A,2013-10-08 20:19:00,
2013-10-08 13:20:00,73.9,37.7,29.21,SW,223,6.1,9.1,26,-99.99,,,0.00,569.9,rob ver 1B,2013-10-08 20:20:00,
2013-10-08 13:21:00,74.0,37.2,29.21,SW,229,10.6,13.4,26,-99.99,,,0.00,463.4,rob ver 1B,2013-10-08 20:21:00,
2013-10-08 13:22:00,74.1,37.1,29.21,SW,235,10.7,14.4,25,-99.99,,,0.00,453.6,rob ver 1B,2013-10-08 20:22:00,
2013-10-08 13:23:00,74.5,37.1,29.21,WSW,239,15.0,17.4,25,-99.99,,,0.00,557.2,rob ver 1B,2013-10-08 20:23:00,
2013-10-08 13:24:00,88.7,23.8,29.26,SSE,153,8.8,11.3,9,-99.99,,,0.00,758,rob ver 1A,2013-10-08 20:24:00,
2013-10-08 13:25:00,74.0,37.2,29.21,WSW,237,12.4,16.1,26,-99.99,,,0.00,425.3,rob ver 1B,2013-10-08 20:25:00,
2013-10-08 13:26:00,73.9,37.3,29.21,SW,232,13.7,17.3,26,-99.99,,,0.00,464.2,rob ver 1B,2013-10-08 20:26:00,
2013-10-08 13:27:00,73.7,37.2,29.21,SW,223,14.2,18.2,26,-99.99,,,0.00,482.7,rob ver 1B,2013-10-08 20:27:00,
2013-10-08 13:28:00,73.6,37.2,29.21,SSW,203,10.4,13.2,26,-99.99,,,0.00,433.2,rob ver 1B,2013-10-08 20:28:00,
2013-10-08 13:29:00,88.6,24.4,29.26,SSE,149,12.4,14.4,9,-99.99,,,0.00,754,rob ver 1A,2013-10-08 20:29:00,
2013-10-08 13:30:00,73.4,37.2,29.21,SW,216,12.1,14.9,26,-99.99,,,0.00,399.1,rob ver 1B,2013-10-08 20:30:00,
2013-10-08 13:31:00,73.3,37.2,29.21,SSW,210,7.0,10.5,26,-99.99,,,0.00,445.9,rob ver 1B,2013-10-08 20:31:00,
2013-10-08 13:32:00,73.3,37.3,29.21,SW,232,7.7,10.2,26,-99.99,,,0.00,403.2,rob ver 1B,2013-10-08 20:32:00,
2013-10-08 13:33:00,73.4,37.4,29.18,SW,225,12.5,16.6,26,-99.99,,,0.00,394,rob ver 1B,2013-10-08 20:33:00,
2013-10-08 13:34:00,87.9,25.2,29.23,SSE,148,8.1,10.3,10,-99.99,,,0.00,749,rob ver 1A,2013-10-08 20:34:00,
2013-10-08 13:35:00,73.4,37.4,29.21,SW,215,10.5,12.8,27,-99.99,,,0.00,380.6,rob ver 1B,2013-10-08 20:35:00,
2013-10-08 13:36:00,73.5,37.5,29.21,WSW,256,13.8,17.9,26,-99.99,,,0.00,374,rob ver 1B,2013-10-08 20:36:00,
2013-10-08 13:37:00,73.5,37.4,29.18,West,262,13.3,15.3,26,-99.99,,,0.00,377.1,rob ver 1B,2013-10-08 20:37:00,
2013-10-08 13:38:00,73.6,37.4,29.21,WSW,256,13.5,16.5,26,-99.99,,,0.00,372.5,rob ver 1B,2013-10-08 20:38:00,
2013-10-08 13:39:00,87.7,26.3,29.23,SSE,163,10.6,14.5,10,-99.99,,,0.00,743,rob ver 1A,2013-10-08 20:39:00,
2013-10-08 13:40:00,73.1,37.5,29.21,WSW,253,10.1,13.1,27,-99.99,,,0.00,390.3,rob ver 1B,2013-10-08 20:40:00,
2013-10-08 13:41:00,73.0,37.4,29.21,WSW,250,9.5,12.5,27,-99.99,,,0.00,385.1,rob ver 1B,2013-10-08 20:41:00,
2013-10-08 13:42:00,73.1,37.5,29.21,West,261,10.3,14.3,27,-99.99,,,0.00,393,rob ver 1B,2013-10-08 20:42:00,
2013-10-08 13:43:00,73.1,37.4,29.21,West,261,9.0,11.2,27,-99.99,,,0.00,398.7,rob ver 1B,2013-10-08 20:43:00,
2013-10-08 13:44:00,88.1,26.2,29.23,South,181,8.4,10.8,10,-99.99,,,0.00,733,rob ver 1A,2013-10-08 20:44:00,
2013-10-08 13:45:00,73.6,37.5,29.21,West,260,13.4,17.9,26,-99.99,,,0.00,408.8,rob ver 1B,2013-10-08 20:45:00,
2013-10-08 13:46:00,73.5,37.4,29.18,West,262,10.0,14.3,26,-99.99,,,0.00,405.2,rob ver 1B,2013-10-08 20:46:00,
2013-10-08 13:47:00,73.6,37.5,29.21,WSW,257,9.5,11.5,26,-99.99,,,0.00,423.6,rob ver 1B,2013-10-08 20:47:00,
2013-10-08 13:48:00,73.8,37.5,29.21,WSW,250,9.6,12.3,26,-99.99,,,0.00,437,rob ver 1B,2013-10-08 20:48:00,
2013-10-08 13:49:00,74.0,37.4,29.21,SW,222,8.0,11.1,26,-99.99,,,0.00,418.7,rob ver 1B,2013-10-08 20:49:00,
2013-10-08 13:50:00,88.6,27.3,29.23,SSE,164,6.0,9.9,10,-99.99,,,0.00,728,rob ver 1A,2013-10-08 20:50:00,
2013-10-08 13:51:00,73.5,37.4,29.21,SW,230,9.4,12.3,27,-99.99,,,0.00,452,rob ver 1B,2013-10-08 20:51:00,
2013-10-08 13:52:00,73.4,37.4,29.21,SW,234,9.6,11.5,27,-99.99,,,0.00,468.1,rob ver 1B,2013-10-08 20:52:00,
2013-10-08 13:53:00,73.5,37.4,29.21,SW,227,8.1,11.4,26,-99.99,,,0.00,403.2,rob ver 1B,2013-10-08 20:53:00,
2013-10-08 13:54:00,74.0,37.0,29.18,SSW,213,14.5,19.8,25,-99.99,,,0.00,383.2,rob ver 1B,2013-10-08 20:54:00,
2013-10-08 13:55:00,88.4,27.9,29.23,SSE,165,12.6,15.0,11,-99.99,,,0.00,717,rob ver 1A,2013-10-08 20:55:00,
2013-10-08 13:56:00,74.1,36.8,29.18,SW,220,13.2,16.5,25,-99.99,,,0.00,380.1,rob ver 1B,2013-10-08 20:56:00,
2013-10-08 13:57:00,74.2,36.8,29.21,SSW,196,13.2,15.9,25,-99.99,,,0.00,366.6,rob ver 1B,2013-10-08 20:57:00,
2013-10-08 13:58:00,74.1,36.9,29.21,SSW,193,12.5,14.8,26,-99.99,,,0.00,364.6,rob ver 1B,2013-10-08 20:58:00,
2013-10-08 13:59:00,74.0,37.1,29.18,SSW,203,9.7,12.8,26,-99.99,,,0.00,385.7,rob ver 1B,2013-10-08 20:59:00,
2013-10-08 14:00:00,88.2,27.5,29.23,South,172,7.8,10.1,11,-99.99,,,0.00,709,rob ver 1A,2013-10-08 21:00:00,
2013-10-08 14:01:00,74.4,36.9,29.18,South,187,10.4,12.8,25,-99.99,,,0.00,370.6,rob ver 1B,2013-10-08 21:01:00,
2013-10-08 14:02:00,74.3,36.7,29.18,SSW,212,11.7,14.9,25,-99.99,,,0.00,369.2,rob ver 1B,2013-10-08 21:02:00,
2013-10-08 14:03:00,74.0,36.7,29.18,SSW,208,11.6,14.1,25,-99.99,,,0.00,360,rob ver 1B,2013-10-08 21:03:00,
2013-10-08 14:04:00,73.7,36.8,29.18,SW,215,9.1,11.3,26,-99.99,,,0.00,340.6,rob ver 1B,2013-10-08 21:04:00,
2013-10-08 14:05:00,89.0,26.5,29.23,SSW,196,12.2,15.2,10,-99.99,,,0.00,703,rob ver 1A,2013-10-08 21:05:00,
2013-10-08 14:06:00,73.8,37.1,29.18,SSW,205,14.0,18.2,25,-99.99,,,0.00,331.7,rob ver 1B,2013-10-08 21:06:00,
2013-10-08 14:07:00,74.1,36.9,29.18,SW,224,15.7,18.7,25,-99.99,,,0.00,331.2,rob ver 1B,2013-10-08 21:07:00,
2013-10-08 14:08:00,73.8,36.9,29.18,SW,226,11.3,14.4,26,-99.99,,,0.00,346,rob ver 1B,2013-10-08 21:08:00,
2013-10-08 14:09:00,73.9,36.9,29.18,SW,215,12.9,14.8,25,-99.99,,,0.00,360.7,rob ver 1B,2013-10-08 21:09:00,
2013-10-08 14:10:00,89.4,26.4,29.23,SSW,200,9.2,12.0,10,-99.99,,,0.00,695,rob ver 1A,2013-10-08 21:10:00,
2013-10-08 14:11:00,74.0,37.0,29.18,SW,215,10.8,13.0,26,-99.99,,,0.00,348.6,rob ver 1B,2013-10-08 21:11:00,
2013-10-08 14:12:00,74.0,37.0,29.18,SW,228,8.5,11.0,26,-99.99,,,0.00,340.2,rob ver 1B,2013-10-08 21:12:00,
2013-10-08 14:13:00,74.0,37.0,29.18,WSW,245,9.3,12.4,26,-99.99,,,0.00,333.6,rob ver 1B,2013-10-08 21:13:00,
2013-10-08 14:14:00,73.8,37.0,29.18,WSW,242,10.8,13.7,26,-99.99,,,0.00,332.8,rob ver 1B,2013-10-08 21:14:00,
2013-10-08 14:15:00,88.6,26.7,29.23,SE,144,7.3,9.4,10,-99.99,,,0.00,680.5,rob ver 1A,2013-10-08 21:15:00,
2013-10-08 14:16:00,73.9,37.1,29.18,SW,229,10.7,15.5,26,-99.99,,,0.00,347.5,rob ver 1B,2013-10-08 21:16:00,
2013-10-08 14:17:00,73.7,37.1,29.18,SW,215,11.6,16.7,26,-99.99,,,0.00,433.9,rob ver 1B,2013-10-08 21:17:00,
2013-10-08 14:18:00,73.5,37.2,29.18,SW,230,9.7,13.8,26,-99.99,,,0.00,402.2,rob ver 1B,2013-10-08 21:18:00,
2013-10-08 14:19:00,73.5,37.1,29.18,WSW,237,12.7,15.6,26,-99.99,,,0.00,370.6,rob ver 1B,2013-10-08 21:19:00,
2013-10-08 14:20:00,89.3,27.9,29.23,South,185,12.2,14.8,10,-99.99,,,0.00,671,rob ver 1A,2013-10-08 21:20:00,
2013-10-08 14:21:00,73.6,37.1,29.18,SW,222,9.5,11.7,26,-99.99,,,0.00,659.7,rob ver 1B,2013-10-08 21:21:00,
2013-10-08 14:22:00,73.9,36.9,29.18,SW,234,9.6,11.3,26,-99.99,,,0.00,542.5,rob ver 1B,2013-10-08 21:22:00,
2013-10-08 14:23:00,73.9,37.1,29.18,SW,228,11.8,14.5,26,-99.99,,,0.00,590.1,rob ver 1B,2013-10-08 21:23:00,
2013-10-08 14:24:00,74.0,37.2,29.18,SW,229,12.3,15.8,26,-99.99,,,0.00,697.1,rob ver 1B,2013-10-08 21:24:00,
2013-10-08 14:25:00,89.5,28.1,29.23,South,190,8.5,11.9,10,-99.99,,,0.00,660.1,rob ver 1A,2013-10-08 21:25:00,
2013-10-08 14:26:00,74.3,37.3,29.18,SW,221,7.8,12.3,25,-99.99,,,0.00,818,rob ver 1B,2013-10-08 21:26:00,
2013-10-08 14:27:00,74.6,37.3,29.18,SSW,209,7.7,10.2,25,-99.99,,,0.00,645.2,rob ver 1B,2013-10-08 21:27:00,
2013-10-08 14:28:00,74.9,37.3,29.18,SW,223,11.7,13.6,25,-99.99,,,0.00,796,rob ver 1B,2013-10-08 21:28:00,
2013-10-08 14:29:00,75.1,37.2,29.18,SW,221,11.6,14.5,25,-99.99,,,0.00,660.5,rob ver 1B,2013-10-08 21:29:00,
2013-10-08 14:30:00,74.9,37.1,29.18,SW,221,11.8,14.8,25,-99.99,,,0.00,723,rob ver 1B,2013-10-08 21:30:00,
2013-10-08 14:31:00,89.8,26.9,29.23,South,190,10.0,12.3,10,-99.99,,,0.00,651.7,rob ver 1A,2013-10-08 21:31:00,
2013-10-08 14:32:00,74.5,37.2,29.18,SW,233,9.0,10.8,25,-99.99,,,0.00,455.4,rob ver 1B,2013-10-08 21:32:00,
2013-10-08 14:33:00,74.4,37.2,29.18,SW,226,5.8,7.7,26,-99.99,,,0.00,568.9,rob ver 1B,2013-10-08 21:33:00,
2013-10-08 14:34:00,74.4,37.1,29.18,WSW,245,6.2,9.5,25,-99.99,,,0.00,699.6,rob ver 1B,2013-10-08 21:34:00,
2013-10-08 14:35:00,74.3,37.3,29.18,SW,225,7.2,13.9,26,-99.99,,,0.00,576.3,rob ver 1B,2013-10-08 21:35:00,
2013-10-08 14:36:00,89.7,27.6,29.23,South,169,8.0,12.8,10,-99.99,,,0.00,641.5,rob ver 1A,2013-10-08 21:36:00,
2013-10-08 14:37:00,74.8,37.3,29.18,South,186,6.4,8.1,25,-99.99,,,0.00,711,rob ver 1B,2013-10-08 21:37:00,
2013-10-08 14:38:00,74.9,37.4,29.18,South,180,4.5,6.4,25,-99.99,,,0.00,633,rob ver 1B,2013-10-08 21:38:00,
2013-10-08 14:39:00,75.1,37.6,29.18,South,183,3.7,6.4,25,-99.99,,,0.00,576.9,rob ver 1B,2013-10-08 21:39:00,
2013-10-08 14:40:00,75.4,37.4,29.18,South,188,5.5,7.8,25,-99.99,,,0.00,655.1,rob ver 1B,2013-10-08 21:40:00,
2013-10-08 14:41:00,89.3,27.6,29.23,SSW,203,9.5,12.2,10,-99.99,,,0.00,631.1,rob ver 1A,2013-10-08 21:41:00,
2013-10-08 14:42:00,75.8,37.5,29.18,SSW,193,7.2,10.9,24,-99.99,,,0.00,443.9,rob ver 1B,2013-10-08 21:42:00,
2013-10-08 14:43:00,75.6,37.4,29.18,SSW,203,9.6,16.6,25,-99.99,,,0.00,533.4,rob ver 1B,2013-10-08 21:43:00,
2013-10-08 14:44:00,75.2,37.3,29.18,South,190,12.4,15.3,25,-99.99,,,0.00,390.3,rob ver 1B,2013-10-08 21:44:00,
2013-10-08 14:45:00,74.8,37.3,29.18,SSW,210,7.9,11.0,25,-99.99,,,0.00,328.7,rob ver 1B,2013-10-08 21:45:00,
2013-10-08 14:46:00,89.2,28.3,29.23,South,170,8.4,11.2,11,-99.99,,,0.00,619.7,rob ver 1A,2013-10-08 21:46:00,
2013-10-08 14:47:00,74.4,37.4,29.18,SW,217,5.4,7.7,26,-99.99,,,0.00,297.5,rob ver 1B,2013-10-08 21:47:00,
2013-10-08 14:48:00,74.3,37.4,29.18,WSW,245,3.0,4.3,26,-99.99,,,0.00,297.4,rob ver 1B,2013-10-08 21:48:00,
2013-10-08 14:49:00,74.2,37.5,29.18,SW,219,3.0,6.1,26,-99.99,,,0.00,301.5,rob ver 1B,2013-10-08 21:49:00,
2013-10-08 14:50:00,74.4,37.4,29.18,SW,226,8.0,10.4,26,-99.99,,,0.00,292.4,rob ver 1B,2013-10-08 21:50:00,
2013-10-08 14:51:00,89.3,27.8,29.21,South,187,5.4,8.2,10,-99.99,,,0.00,610.2,rob ver 1A,2013-10-08 21:51:00,
2013-10-08 14:52:00,74.2,37.5,29.18,WSW,240,6.8,7.7,26,-99.99,,,0.00,298.9,rob ver 1B,2013-10-08 21:52:00,
2013-10-08 14:53:00,74.2,37.5,29.18,SW,222,8.3,11.3,26,-99.99,,,0.00,297.7,rob ver 1B,2013-10-08 21:53:00,
2013-10-08 14:54:00,74.2,37.5,29.18,SW,218,12.0,15.8,26,-99.99,,,0.00,309.6,rob ver 1B,2013-10-08 21:54:00,
2013-10-08 14:55:00,74.4,37.4,29.18,SW,214,14.0,17.4,25,-99.99,,,0.00,317,rob ver 1B,2013-10-08 21:55:00,
2013-10-08 14:56:00,89.3,26.9,29.21,SSW,193,8.2,15.2,10,-99.99,,,0.00,598.3,rob ver 1A,2013-10-08 21:56:00,
2013-10-08 14:57:00,74.5,37.4,29.18,SW,214,9.7,11.2,25,-99.99,,,0.00,309.4,rob ver 1B,2013-10-08 21:57:00,
2013-10-08 14:58:00,74.4,37.3,29.18,SSW,213,6.3,9.6,26,-99.99,,,0.00,309.7,rob ver 1B,2013-10-08 21:58:00,
2013-10-08 14:59:00,74.3,37.4,29.18,South,189,3.8,6.1,26,-99.99,,,0.00,326.4,rob ver 1B,2013-10-08 21:59:00,
2013-10-08 15:00:00,74.3,37.5,29.18,SSW,203,3.7,6.0,26,-99.99,,,0.00,307.3,rob ver 1B,2013-10-08 22:00:00,
2013-10-08 15:01:00,89.8,27.2,29.21,SSW,197,11.1,14.8,10,-99.99,,,0.00,583.1,rob ver 1A,2013-10-08 22:01:00,
2013-10-08 15:02:00,74.3,37.5,29.18,SW,220,6.5,8.3,26,-99.99,,,0.00,298,rob ver 1B,2013-10-08 22:02:00,
2013-10-08 15:03:00,74.1,37.6,29.18,SW,223,6.5,9.5,26,-99.99,,,0.00,292.1,rob ver 1B,2013-10-08 22:03:00,
2013-10-08 15:04:00,74.1,37.6,29.18,SW,228,10.0,11.9,26,-99.99,,,0.00,289.3,rob ver 1B,2013-10-08 22:04:00,
2013-10-08 15:05:00,74.0,37.6,29.18,SW,215,8.4,11.5,26,-99.99,,,0.00,294.2,rob ver 1B,2013-10-08 22:05:00,
2013-10-08 15:06:00,90.1,27.8,29.21,SSW,204,9.2,13.3,10,-99.99,,,0.00,569.1,rob ver 1A,2013-10-08 22:06:00,
2013-10-08 15:07:00,74.7,36.9,29.18,SW,218,10.9,14.1,25,-99.99,,,0.00,386.1,rob ver 1B,2013-10-08 22:07:00,
2013-10-08 15:08:00,75.0,37.5,29.18,WSW,242,9.7,11.3,26,-99.99,,,0.00,337.9,rob ver 1B,2013-10-08 22:08:00,
2013-10-08 15:09:00,74.4,37.7,29.18,WSW,240,10.9,12.9,26,-99.99,,,0.00,321.1,rob ver 1B,2013-10-08 22:09:00,
2013-10-08 15:10:00,73.9,37.8,29.18,WSW,239,9.4,12.5,27,-99.99,,,0.00,318.5,rob ver 1B,2013-10-08 22:10:00,
2013-10-08 15:11:00,89.7,27.3,29.21,South,180,6.1,9.4,10,-99.99,,,0.00,555.8,rob ver 1A,2013-10-08 22:11:00,
2013-10-08 15:12:00,73.6,37.8,29.18,SW,236,10.2,13.3,27,-99.99,,,0.00,336.9,rob ver 1B,2013-10-08 22:12:00,
2013-10-08 15:13:00,73.9,37.8,29.18,WSW,239,9.8,13.4,26,-99.99,,,0.00,387.9,rob ver 1B,2013-10-08 22:13:00,
2013-10-08 15:14:00,74.1,37.7,29.18,WSW,240,9.0,12.3,26,-99.99,,,0.00,429.2,rob ver 1B,2013-10-08 22:14:00,
2013-10-08 15:15:00,73.9,37.8,29.18,WSW,249,9.5,12.4,26,-99.99,,,0.00,505.7,rob ver 1B,2013-10-08 22:15:00,
2013-10-08 15:16:00,73.9,37.7,29.18,WSW,251,11.8,17.7,26,-99.99,,,0.00,420,rob ver 1B,2013-10-08 22:16:00,
2013-10-08 15:17:00,89.8,27.7,29.21,SSW,198,5.1,10.0,10,-99.99,,,0.00,541.6,rob ver 1A,2013-10-08 22:17:00,
2013-10-08 15:18:00,73.9,37.7,29.18,WSW,254,9.7,13.0,26,-99.99,,,0.00,498.8,rob ver 1B,2013-10-08 22:18:00,
2013-10-08 15:19:00,74.1,37.7,29.18,West,261,9.6,13.4,26,-99.99,,,0.00,593.6,rob ver 1B,2013-10-08 22:19:00,
2013-10-08 15:20:00,74.0,37.7,29.18,West,280,9.0,10.9,26,-99.99,,,0.00,426.6,rob ver 1B,2013-10-08 22:20:00,
2013-10-08 15:21:00,73.9,37.8,29.18,WNW,282,8.5,9.7,27,-99.99,,,0.00,329.7,rob ver 1B,2013-10-08 22:21:00,
2013-10-08 15:22:00,89.6,28.5,29.21,SSW,212,10.5,13.5,11,-99.99,,,0.00,527.8,rob ver 1A,2013-10-08 22:22:00,
2013-10-08 15:23:00,74.1,37.7,29.18,West,280,11.1,14.4,26,-99.99,,,0.00,596.2,rob ver 1B,2013-10-08 22:23:00,
2013-10-08 15:24:00,74.1,37.6,29.18,West,265,11.1,14.7,26,-99.99,,,0.00,432.9,rob ver 1B,2013-10-08 22:24:00,
2013-10-08 15:25:00,74.1,37.6,29.18,WSW,245,11.3,14.9,26,-99.99,,,0.00,534.1,rob ver 1B,2013-10-08 22:25:00,
2013-10-08 15:26:00,73.8,37.6,29.18,WSW,257,8.5,11.0,26,-99.99,,,0.00,515,rob ver 1B,2013-10-08 22:26:00,
2013-10-08 15:27:00,89.8,28.4,29.21,South,183,8.8,11.1,11,-99.99,,,0.00,514.1,rob ver 1A,2013-10-08 22:27:00,
2013-10-08 15:28:00,73.8,37.6,29.18,WSW,246,10.0,14.6,27,-99.99,,,0.00,516.6,rob ver 1B,2013-10-08 22:28:00,
2013-10-08 15:29:00,73.7,37.7,29.18,WSW,250,9.8,13.7,26,-99.99,,,0.00,496.2,rob ver 1B,2013-10-08 22:29:00,
2013-10-08 15:30:00,74.0,37.6,29.18,WSW,251,10.4,13.0,26,-99.99,,,0.00,468.3,rob ver 1B,2013-10-08 22:30:00,
2013-10-08 15:31:00,73.8,37.6,29.18,WSW,253,9.1,11.7,27,-99.99,,,0.00,452.3,rob ver 1B,2013-10-08 22:31:00,
2013-10-08 15:32:00,89.9,28.7,29.21,SW,217,11.0,13.3,11,-99.99,,,0.00,499.1,rob ver 1A,2013-10-08 22:32:00,
2013-10-08 15:33:00,73.7,37.6,29.18,WSW,248,10.4,13.9,26,-99.99,,,0.00,453.6,rob ver 1B,2013-10-08 22:33:00,
2013-10-08 15:34:00,73.7,37.6,29.18,West,266,8.9,10.9,27,-99.99,,,0.00,453.8,rob ver 1B,2013-10-08 22:34:00,
2013-10-08 15:35:00,73.7,37.7,29.18,WSW,256,8.0,12.2,26,-99.99,,,0.00,453,rob ver 1B,2013-10-08 22:35:00,
2013-10-08 15:36:00,73.9,37.6,29.18,West,262,7.8,9.2,26,-99.99,,,0.00,448.8,rob ver 1B,2013-10-08 22:36:00,
2013-10-08 15:37:00,89.5,29.1,29.21,SSW,192,8.2,10.5,11,-99.99,,,0.00,484.9,rob ver 1A,2013-10-08 22:37:00,
2013-10-08 15:38:00,74.2,37.6,29.18,West,271,9.5,13.8,26,-99.99,,,0.00,455.4,rob ver 1B,2013-10-08 22:38:00,
2013-10-08 15:39:00,74.3,37.7,29.18,WNW,282,13.5,20.0,26,-99.99,,,0.00,448.7,rob ver 1B,2013-10-08 22:39:00,
2013-10-08 15:40:00,74.3,37.6,29.18,WSW,253,10.5,13.2,26,-99.99,,,0.00,450.2,rob ver 1B,2013-10-08 22:40:00,
2013-10-08 15:41:00,74.1,37.7,29.18,WSW,258,11.2,15.2,26,-99.99,,,0.00,445.1,rob ver 1B,2013-10-08 22:41:00,
2013-10-08 15:42:00,89.9,29.3,29.21,SSW,199,10.9,13.0,11,-99.99,,,0.00,471.2,rob ver 1A,2013-10-08 22:42:00,
2013-10-08 15:43:00,73.6,37.6,29.18,WSW,253,12.3,15.1,27,-99.99,,,0.00,388.2,rob ver 1B,2013-10-08 22:43:00,
2013-10-08 15:44:00,73.6,37.7,29.18,WSW,257,12.4,14.8,26,-99.99,,,0.00,359,rob ver 1B,2013-10-08 22:44:00,
2013-10-08 15:45:00,73.7,37.6,29.18,WSW,257,11.9,13.6,26,-99.99,,,0.00,347,rob ver 1B,2013-10-08 22:45:00,
2013-10-08 15:46:00,73.7,37.5,29.18,West,260,10.6,15.4,26,-99.99,,,0.00,329.3,rob ver 1B,2013-10-08 22:46:00,
2013-10-08 15:47:00,89.5,29.1,29.21,SSW,203,9.9,12.7,11,-99.99,,,0.00,450.2,rob ver 1A,2013-10-08 22:47:00,
2013-10-08 15:48:00,73.6,37.7,29.18,WSW,253,12.0,15.4,26,-99.99,,,0.00,358,rob ver 1B,2013-10-08 22:48:00,
2013-10-08 15:49:00,73.7,37.6,29.18,WSW,254,12.7,15.5,26,-99.99,,,0.00,350.4,rob ver 1B,2013-10-08 22:49:00,
2013-10-08 15:50:00,73.7,37.7,29.18,WSW,254,12.8,15.3,26,-99.99,,,0.00,382.1,rob ver 1B,2013-10-08 22:50:00,
2013-10-08 15:51:00,74.1,37.6,29.18,WSW,258,12.6,17.4,26,-99.99,,,0.00,342.9,rob ver 1B,2013-10-08 22:51:00,
2013-10-08 15:52:00,89.8,27.8,29.21,South,189,10.3,12.9,11,-99.99,,,0.00,442.9,rob ver 1A,2013-10-08 22:52:00,
2013-10-08 15:53:00,74.0,37.6,29.18,WSW,240,12.1,17.3,26,-99.99,,,0.00,362.6,rob ver 1B,2013-10-08 22:53:00,
2013-10-08 15:54:00,73.7,37.5,29.18,SW,220,9.8,16.0,26,-99.99,,,0.00,358.8,rob ver 1B,2013-10-08 22:54:00,
2013-10-08 15:55:00,73.5,37.6,29.18,SW,235,9.5,14.5,27,-99.99,,,0.00,369.2,rob ver 1B,2013-10-08 22:55:00,
2013-10-08 15:56:00,73.5,37.5,29.18,WSW,256,14.1,17.4,26,-99.99,,,0.00,339.7,rob ver 1B,2013-10-08 22:56:00,
2013-10-08 15:57:00,90.4,27.8,29.21,SSW,202,13.1,17.2,10,-99.99,,,0.00,428.1,rob ver 1A,2013-10-08 22:57:00,
2013-10-08 15:58:00,73.3,37.5,29.18,WSW,252,10.7,15.0,27,-99.99,,,0.00,366.9,rob ver 1B,2013-10-08 22:58:00,
2013-10-08 15:59:00,73.4,37.5,29.18,West,262,13.0,16.5,27,-99.99,,,0.00,400.2,rob ver 1B,2013-10-08 22:59:00,
2013-10-08 16:00:00,73.6,37.5,29.18,West,260,14.1,16.9,26,-99.99,,,0.00,394.6,rob ver 1B,2013-10-08 23:00:00,
2013-10-08 16:01:00,73.5,37.5,29.18,West,268,9.9,13.6,27,-99.99,,,0.00,369.1,rob ver 1B,2013-10-08 23:01:00,
2013-10-08 16:02:00,73.3,37.6,29.18,WSW,254,10.3,12.7,27,-99.99,,,0.00,337.6,rob ver 1B,2013-10-08 23:02:00,
2013-10-08 16:03:00,89.9,27.3,29.21,SSE,168,9.7,11.3,10,-99.99,,,0.00,411.6,rob ver 1A,2013-10-08 23:03:00,
2013-10-08 16:04:00,73.7,37.6,29.18,WSW,238,14.1,17.4,26,-99.99,,,0.00,341.9,rob ver 1B,2013-10-08 23:04:00,
2013-10-08 16:05:00,73.6,37.5,29.18,WSW,240,11.4,14.2,27,-99.99,,,0.00,362.1,rob ver 1B,2013-10-08 23:05:00,
2013-10-08 16:06:00,73.5,37.5,29.18,WSW,248,10.3,12.8,27,-99.99,,,0.00,363.6,rob ver 1B,2013-10-08 23:06:00,
2013-10-08 16:07:00,73.6,37.5,29.18,West,259,9.3,13.0,27,-99.99,,,0.00,354.7,rob ver 1B,2013-10-08 23:07:00,
2013-10-08 16:08:00,90.2,27.8,29.21,SSW,196,8.8,10.4,10,-99.99,,,0.00,394.6,rob ver 1A,2013-10-08 23:08:00,
2013-10-08 16:09:00,73.8,37.6,29.18,WSW,252,11.9,15.2,26,-99.99,,,0.00,344.8,rob ver 1B,2013-10-08 23:09:00,
2013-10-08 16:10:00,74.0,37.5,29.18,WSW,246,12.8,15.5,26,-99.99,,,0.00,338.6,rob ver 1B,2013-10-08 23:10:00,
2013-10-08 16:11:00,73.8,37.5,29.18,WSW,239,10.6,13.2,26,-99.99,,,0.00,336.6,rob ver 1B,2013-10-08 23:11:00,
2013-10-08 16:12:00,73.7,37.5,29.18,SW,229,10.4,13.3,26,-99.99,,,0.00,334.3,rob ver 1B,2013-10-08 23:12:00,
2013-10-08 16:13:00,90.1,27.6,29.21,South,174,8.3,9.8,10,-99.99,,,0.00,379.3,rob ver 1A,2013-10-08 23:13:00,
2013-10-08 16:14:00,73.5,37.6,29.18,SW,234,11.3,14.5,27,-99.99,,,0.00,326.2,rob ver 1B,2013-10-08 23:14:00,
2013-10-08 16:15:00,73.8,37.6,29.18,SW,232,10.4,14.2,26,-99.99,,,0.00,316.5,rob ver 1B,2013-10-08 23:15:00,
2013-10-08 16:16:00,74.2,37.6,29.15,SW,235,12.1,17.5,26,-99.99,,,0.00,314.5,rob ver 1B,2013-10-08 23:16:00,
2013-10-08 16:17:00,74.2,37.5,29.18,WSW,247,12.4,15.8,26,-99.99,,,0.00,311.2,rob ver 1B,2013-10-08 23:17:00,
2013-10-08 16:18:00,90.2,27.1,29.21,South,178,8.2,10.3,10,-99.99,,,0.00,365,rob ver 1A,2013-10-08 23:18:00,
2013-10-08 16:19:00,73.8,37.5,29.15,WSW,256,13.1,16.8,26,-99.99,,,0.00,309.2,rob ver 1B,2013-10-08 23:19:00,
2013-10-08 16:20:00,73.9,37.5,29.15,WSW,247,13.8,16.1,26,-99.99,,,0.00,307.9,rob ver 1B,2013-10-08 23:20:00,
2013-10-08 16:21:00,73.7,37.4,29.18,WSW,243,8.8,12.1,26,-99.99,,,0.00,304.3,rob ver 1B,2013-10-08 23:21:00,
2013-10-08 16:22:00,73.6,37.5,29.18,West,261,8.9,10.8,26,-99.99,,,0.00,302.3,rob ver 1B,2013-10-08 23:22:00,
2013-10-08 16:23:00,90.2,25.0,29.18,SSW,199,11.4,16.1,9,-99.99,,,0.00,347.2,rob ver 1A,2013-10-08 23:23:00,
2013-10-08 16:24:00,73.6,37.5,29.18,West,262,9.0,10.8,26,-99.99,,,0.00,298,rob ver 1B,2013-10-08 23:24:00,
2013-10-08 16:25:00,73.7,37.5,29.18,West,263,11.6,15.8,26,-99.99,,,0.00,291.6,rob ver 1B,2013-10-08 23:25:00,
2013-10-08 16:26:00,73.8,37.5,29.18,West,261,11.6,15.9,26,-99.99,,,0.00,288.1,rob ver 1B,2013-10-08 23:26:00,
2013-10-08 16:27:00,73.8,37.5,29.18,WSW,254,12.3,15.0,26,-99.99,,,0.00,284.8,rob ver 1B,2013-10-08 23:27:00,
2013-10-08 16:28:00,90.6,25.8,29.18,SSW,194,9.1,11.0,9,-99.99,,,0.00,329.2,rob ver 1A,2013-10-08 23:28:00,
2013-10-08 16:29:00,73.8,37.4,29.18,SW,234,9.6,11.2,26,-99.99,,,0.00,278.7,rob ver 1B,2013-10-08 23:29:00,
2013-10-08 16:30:00,73.8,37.4,29.18,WSW,237,11.1,14.2,26,-99.99,,,0.00,275.6,rob ver 1B,2013-10-08 23:30:00,
2013-10-08 16:31:00,73.8,37.4,29.18,SW,230,8.9,12.0,26,-99.99,,,0.00,272.5,rob ver 1B,2013-10-08 23:31:00,
2013-10-08 16:32:00,73.7,37.5,29.15,SW,226,7.3,9.0,26,-99.99,,,0.00,269,rob ver 1B,2013-10-08 23:32:00,
2013-10-08 16:33:00,89.7,25.9,29.18,SSW,204,7.4,8.4,10,-99.99,,,0.00,309.4,rob ver 1A,2013-10-08 23:33:00,
2013-10-08 16:34:00,73.8,37.4,29.15,WSW,238,12.1,15.3,26,-99.99,,,0.00,261.4,rob ver 1B,2013-10-08 23:34:00,
2013-10-08 16:35:00,73.7,37.5,29.15,WSW,240,13.3,15.7,26,-99.99,,,0.00,259,rob ver 1B,2013-10-08 23:35:00,
2013-10-08 16:36:00,73.8,37.4,29.15,WSW,244,13.8,15.9,26,-99.99,,,0.00,256.5,rob ver 1B,2013-10-08 23:36:00,
2013-10-08 16:37:00,73.7,37.4,29.15,WSW,243,12.1,15.4,26,-99.99,,,0.00,253.8,rob ver 1B,2013-10-08 23:37:00,
2013-10-08 16:38:00,89.3,25.5,29.18,South,176,8.4,10.9,10,-99.99,,,0.00,293.5,rob ver 1A,2013-10-08 23:38:00,
2013-10-08 16:39:00,73.5,37.4,29.15,WSW,242,12.9,15.0,26,-99.99,,,0.00,249.6,rob ver 1B,2013-10-08 23:39:00,
2013-10-08 16:40:00,73.6,37.4,29.15,WSW,248,11.5,15.2,26,-99.99,,,0.00,246.3,rob ver 1B,2013-10-08 23:40:00,
2013-10-08 16:41:00,73.7,37.2,29.15,WSW,250,13.1,16.0,26,-99.99,,,0.00,242,rob ver 1B,2013-10-08 23:41:00,
2013-10-08 16:42:00,73.4,37.3,29.15,WSW,254,11.5,14.6,26,-99.99,,,0.00,238.4,rob ver 1B,2013-10-08 23:42:00,
2013-10-08 16:43:00,89.9,24.9,29.18,SSW,209,9.0,11.5,9,-99.99,,,0.00,275.5,rob ver 1A,2013-10-08 23:43:00,
2013-10-08 16:44:00,73.3,37.3,29.15,WSW,258,10.1,13.2,26,-99.99,,,0.00,232.1,rob ver 1B,2013-10-08 23:44:00,
2013-10-08 16:45:00,73.3,37.2,29.15,West,275,12.4,24.4,26,-99.99,,,0.00,229.1,rob ver 1B,2013-10-08 23:45:00,
2013-10-08 16:46:00,73.3,37.2,29.15,WSW,241,13.4,28.5,26,-99.99,,,0.00,225.5,rob ver 1B,2013-10-08 23:46:00,
2013-10-08 16:47:00,73.4,37.2,29.15,SW,227,11.6,16.2,26,-99.99,,,0.00,222.9,rob ver 1B,2013-10-08 23:47:00,
2013-10-08 16:48:00,89.9,26.1,29.18,SSW,192,9.5,12.2,10,-99.99,,,0.00,251.4,rob ver 1A,2013-10-08 23:48:00,
2013-10-08 16:49:00,73.2,37.2,29.15,SW,232,11.8,15.4,26,-99.99,,,0.00,215.9,rob ver 1B,2013-10-08 23:49:00,
2013-10-08 16:50:00,73.1,37.2,29.15,SW,235,9.9,12.3,27,-99.99,,,0.00,212.8,rob ver 1B,2013-10-08 23:50:00,
2013-10-08 16:51:00,73.2,37.2,29.18,WSW,247,9.5,12.2,26,-99.99,,,0.00,210.3,rob ver 1B,2013-10-08 23:51:00,
2013-10-08 16:52:00,73.4,37.2,29.15,WSW,250,9.8,11.7,26,-99.99,,,0.00,207.5,rob ver 1B,2013-10-08 23:52:00,
2013-10-08 16:53:00,89.7,26.3,29.18,South,187,7.7,10.6,10,-99.99,,,0.00,233.6,rob ver 1A,2013-10-08 23:53:00,
2013-10-08 16:54:00,73.6,37.4,29.15,WSW,247,13.1,16.9,26,-99.99,,,0.00,200.4,rob ver 1B,2013-10-08 23:54:00,
2013-10-08 16:55:00,73.6,37.3,29.15,WSW,247,14.1,16.4,26,-99.99,,,0.00,196.8,rob ver 1B,2013-10-08 23:55:00,
2013-10-08 16:56:00,73.5,37.4,29.15,WSW,248,12.2,15.6,26,-99.99,,,0.00,189.9,rob ver 1B,2013-10-08 23:56:00,
2013-10-08 16:57:00,73.3,37.5,29.15,West,259,14.0,17.1,27,-99.99,,,0.00,183.1,rob ver 1B,2013-10-08 23:57:00,
2013-10-08 16:58:00,89.5,27.3,29.18,SW,216,9.4,11.9,10,-99.99,,,0.00,216.5,rob ver 1A,2013-10-08 23:58:00,
2013-10-08 16:59:00,72.9,37.5,29.18,West,262,10.8,16.6,27,-99.99,,,0.00,177.5,rob ver 1B,2013-10-08 23:59:00,
2013-10-08 17:00:00,72.8,37.6,29.15,West,268,16.2,21.0,27,-99.99,,,0.00,174.1,rob ver 1B,2013-10-09 00:00:00,
2013-10-08 17:01:00,72.8,37.6,29.15,West,260,13.7,16.4,27,-99.99,,,0.00,168.1,rob ver 1B,2013-10-09 00:01:00,
2013-10-08 17:02:00,72.8,37.6,29.18,WSW,252,14.1,16.8,27,-99.99,,,0.00,165.5,rob ver 1B,2013-10-09 00:02:00,
2013-10-08 17:03:00,72.7,37.6,29.15,WSW,248,15.4,18.7,27,-99.99,,,0.00,162.7,rob ver 1B,2013-10-09 00:03:00,
2013-10-08 17:04:00,89.3,27.8,29.18,SSW,198,7.0,9.8,10,-99.99,,,0.00,199.4,rob ver 1A,2013-10-09 00:04:00,
2013-10-08 17:05:00,72.6,37.7,29.15,WSW,238,13.6,16.6,28,-99.99,,,0.00,158.2,rob ver 1B,2013-10-09 00:05:00,
2013-10-08 17:06:00,72.4,37.7,29.15,WSW,237,13.7,20.2,28,-99.99,,,0.00,154.3,rob ver 1B,2013-10-09 00:06:00,
2013-10-08 17:07:00,72.5,37.8,29.15,WSW,244,14.5,17.6,28,-99.99,,,0.00,152.3,rob ver 1B,2013-10-09 00:07:00,
2013-10-08 17:08:00,72.3,37.7,29.15,WSW,240,12.2,15.6,28,-99.99,,,0.00,150.3,rob ver 1B,2013-10-09 00:08:00,
2013-10-08 17:09:00,89.4,28.5,29.18,SSW,196,9.7,12.2,11,-99.99,,,0.00,182.6,rob ver 1A,2013-10-09 00:09:00,
2013-10-08 17:10:00,72.2,37.8,29.18,WSW,251,11.0,14.3,28,-99.99,,,0.00,145.7,rob ver 1B,2013-10-09 00:10:00,
2013-10-08 17:11:00,72.3,37.9,29.15,WSW,249,14.2,18.8,28,-99.99,,,0.00,143.7,rob ver 1B,2013-10-09 00:11:00,
2013-10-08 17:12:00,72.3,37.8,29.15,WSW,244,16.8,18.7,28,-99.99,,,0.00,140.4,rob ver 1B,2013-10-09 00:12:00,
2013-10-08 17:13:00,72.2,37.8,29.15,WSW,242,16.1,19.4,28,-99.99,,,0.00,137,rob ver 1B,2013-10-09 00:13:00,
2013-10-08 17:14:00,89.2,28.7,29.18,SSW,195,7.6,9.4,11,-99.99,,,0.00,166.9,rob ver 1A,2013-10-09 00:14:00,
2013-10-08 17:15:00,71.9,37.8,29.18,WSW,251,14.1,17.4,28,-99.99,,,0.00,126.6,rob ver 1B,2013-10-09 00:15:00,
2013-10-08 17:16:00,71.9,37.8,29.18,WSW,256,12.8,16.2,28,-99.99,,,0.00,124.6,rob ver 1B,2013-10-09 00:16:00,
2013-10-08 17:17:00,71.9,37.8,29.18,West,260,12.9,16.9,28,-99.99,,,0.00,122.6,rob ver 1B,2013-10-09 00:17:00,
2013-10-08 17:18:00,71.9,38.0,29.18,WSW,258,14.1,18.0,29,-99.99,,,0.00,119.3,rob ver 1B,2013-10-09 00:18:00,
2013-10-08 17:19:00,89.0,28.7,29.18,SW,214,6.0,6.9,11,-99.99,,,0.00,149.8,rob ver 1A,2013-10-09 00:19:00,
2013-10-08 17:20:00,71.7,38.2,29.15,WSW,254,16.9,21.4,29,-99.99,,,0.00,112.8,rob ver 1B,2013-10-09 00:20:00,
2013-10-08 17:21:00,71.4,38.2,29.15,WSW,251,16.7,20.0,29,-99.99,,,0.00,110.1,rob ver 1B,2013-10-09 00:21:00,
2013-10-08 17:22:00,71.4,38.2,29.18,WSW,250,14.2,18.3,29,-99.99,,,0.00,107.5,rob ver 1B,2013-10-09 00:22:00,
2013-10-08 17:23:00,71.4,38.2,29.18,WSW,247,15.8,21.5,29,-99.99,,,0.00,104.8,rob ver 1B,2013-10-09 00:23:00,
2013-10-08 17:24:00,89.0,28.9,29.18,South,189,4.3,5.3,11,-99.99,,,0.00,134,rob ver 1A,2013-10-09 00:24:00,
2013-10-08 17:25:00,71.2,38.1,29.18,WSW,258,15.5,19.8,29,-99.99,,,0.00,99.6,rob ver 1B,2013-10-09 00:25:00,
2013-10-08 17:26:00,71.2,38.2,29.18,WSW,252,14.0,18.3,29,-99.99,,,0.00,96.9,rob ver 1B,2013-10-09 00:26:00,
2013-10-08 17:27:00,71.2,38.1,29.18,WSW,245,13.5,17.5,29,-99.99,,,0.00,93.6,rob ver 1B,2013-10-09 00:27:00,
2013-10-08 17:28:00,71.2,38.1,29.15,WSW,250,15.0,18.4,30,-99.99,,,0.00,91.3,rob ver 1B,2013-10-09 00:28:00,
2013-10-08 17:29:00,88.9,28.9,29.18,SW,225,6.5,9.5,11,-99.99,,,0.00,117.6,rob ver 1A,2013-10-09 00:29:00,
2013-10-08 17:30:00,71.0,38.2,29.18,WSW,254,14.8,18.1,30,-99.99,,,0.00,85.1,rob ver 1B,2013-10-09 00:30:00,
2013-10-08 17:31:00,70.8,38.2,29.18,West,261,15.7,18.3,30,-99.99,,,0.00,81.8,rob ver 1B,2013-10-09 00:31:00,
2013-10-08 17:32:00,70.7,38.3,29.18,WSW,256,15.9,19.2,30,-99.99,,,0.00,79.1,rob ver 1B,2013-10-09 00:32:00,
2013-10-08 17:33:00,70.6,38.3,29.18,West,259,15.7,19.5,30,-99.99,,,0.00,75.8,rob ver 1B,2013-10-09 00:33:00,
2013-10-08 17:34:00,88.4,28.9,29.18,SSW,213,6.2,7.8,11,-99.99,,,0.00,99.9,rob ver 1A,2013-10-09 00:34:00,
2013-10-08 17:35:00,70.5,38.3,29.18,West,259,15.6,18.4,30,-99.99,,,0.00,69.24,rob ver 1B,2013-10-09 00:35:00,
2013-10-08 17:36:00,70.5,38.3,29.18,West,261,14.4,18.7,30,-99.99,,,0.00,65.94,rob ver 1B,2013-10-09 00:36:00,
2013-10-08 17:37:00,70.5,38.2,29.18,WSW,247,13.6,16.5,30,-99.99,,,0.00,62.65,rob ver 1B,2013-10-09 00:37:00,
2013-10-08 17:38:00,70.3,38.2,29.18,WSW,248,16.4,23.4,30,-99.99,,,0.00,59.51,rob ver 1B,2013-10-09 00:38:00,
2013-10-08 17:39:00,88.4,28.9,29.18,SSW,198,6.0,6.9,11,-99.99,,,0.00,85.4,rob ver 1A,2013-10-09 00:39:00,
2013-10-08 17:40:00,70.2,38.1,29.18,WSW,257,15.9,20.4,30,-99.99,,,0.00,54.57,rob ver 1B,2013-10-09 00:40:00,
2013-10-08 17:41:00,70.1,38.1,29.18,WSW,255,15.3,18.7,30,-99.99,,,0.00,52.1,rob ver 1B,2013-10-09 00:41:00,
2013-10-08 17:42:00,70.1,38.0,29.18,WSW,256,15.3,19.0,30,-99.99,,,0.00,49.46,rob ver 1B,2013-10-09 00:42:00,
2013-10-08 17:43:00,70.0,38.0,29.18,WSW,254,15.1,19.6,30,-99.99,,,0.00,46.82,rob ver 1B,2013-10-09 00:43:00,
2013-10-08 17:44:00,88.4,28.9,29.18,SSW,200,5.6,7.0,11,-99.99,,,0.00,71.5,rob ver 1A,2013-10-09 00:44:00,
2013-10-08 17:45:00,69.9,37.7,29.18,WSW,244,17.9,22.3,30,-99.99,,,0.00,42.04,rob ver 1B,2013-10-09 00:45:00,
2013-10-08 17:46:00,69.8,37.7,29.18,WSW,246,14.1,17.2,30,-99.99,,,0.00,39.57,rob ver 1B,2013-10-09 00:46:00,
2013-10-08 17:47:00,69.8,37.7,29.18,WSW,246,14.2,17.2,30,-99.99,,,0.00,37.59,rob ver 1B,2013-10-09 00:47:00,
2013-10-08 17:48:00,69.8,37.7,29.18,WSW,247,15.1,16.8,30,-99.99,,,0.00,35.45,rob ver 1B,2013-10-09 00:48:00,
2013-10-08 17:49:00,88.0,29.2,29.18,WSW,257,5.3,6.2,12,-99.99,,,0.00,57.01,rob ver 1A,2013-10-09 00:49:00,
2013-10-08 17:50:00,69.7,37.7,29.18,WSW,237,15.3,18.7,30,-99.99,,,0.00,31.32,rob ver 1B,2013-10-09 00:50:00,
2013-10-08 17:51:00,69.7,37.6,29.18,WSW,251,13.9,16.4,30,-99.99,,,0.00,29.35,rob ver 1B,2013-10-09 00:51:00,
2013-10-08 17:52:00,69.6,37.6,29.18,SW,236,14.3,17.8,31,-99.99,,,0.00,27.86,rob ver 1B,2013-10-09 00:52:00,
2013-10-08 17:53:00,69.6,37.6,29.18,WSW,241,12.6,15.4,30,-99.99,,,0.00,26.05,rob ver 1B,2013-10-09 00:53:00,
2013-10-08 17:54:00,69.6,37.6,29.18,WSW,247,12.6,15.6,30,-99.99,,,0.00,24.4,rob ver 1B,2013-10-09 00:54:00,
2013-10-08 17:55:00,87.5,29.6,29.18,SW,233,6.1,7.1,12,-99.99,,,0.00,42.68,rob ver 1A,2013-10-09 00:55:00,
2013-10-08 17:56:00,69.5,36.7,29.18,WSW,246,16.0,20.2,29,-99.99,,,0.00,20.77,rob ver 1B,2013-10-09 00:56:00,
2013-10-08 17:57:00,69.4,36.5,29.18,WSW,247,16.3,21.2,29,-99.99,,,0.00,19.12,rob ver 1B,2013-10-09 00:57:00,
2013-10-08 17:58:00,69.3,36.4,29.18,WSW,244,17.1,21.3,29,-99.99,,,0.00,17.48,rob ver 1B,2013-10-09 00:58:00,
2013-10-08 17:59:00,69.2,36.4,29.18,WSW,247,15.8,20.9,29,-99.99,,,0.00,15.83,rob ver 1B,2013-10-09 00:59:00,
2013-10-08 18:00:00,87.0,29.7,29.18,WSW,239,4.4,5.2,12,-99.99,,,0.00,26.03,rob ver 1A,2013-10-09 01:00:00,
2013-10-08 18:02:00,69.2,36.4,29.18,WSW,237,11.6,14.8,29,-99.99,,,0.00,11.54,rob ver 1B,2013-10-09 01:02:00,
2013-10-08 18:03:00,69.2,36.4,29.18,WSW,237,12.3,14.8,29,-99.99,,,0.00,10.22,rob ver 1B,2013-10-09 01:03:00,
2013-10-08 18:04:00,69.2,36.3,29.18,WSW,242,10.4,14.0,29,-99.99,,,0.00,8.74,rob ver 1B,2013-10-09 01:04:00,
2013-10-08 18:05:00,86.7,29.8,29.18,SW,228,5.0,6.7,12,-99.99,,,0.00,14.17,rob ver 1A,2013-10-09 01:05:00,
2013-10-08 18:06:00,69.1,36.3,29.18,SW,233,14.5,17.4,30,-99.99,,,0.00,6.925,rob ver 1B,2013-10-09 01:06:00,
2013-10-08 18:07:00,69.0,36.3,29.18,SW,236,16.2,19.0,29,-99.99,,,0.00,6.595,rob ver 1B,2013-10-09 01:07:00,
2013-10-08 18:10:00,86.1,30.0,29.18,SW,219,4.1,5.0,13,-99.99,,,0.00,6.921,rob ver 1A,2013-10-09 01:10:00,
2013-10-08 18:15:00,85.7,29.4,29.18,SSW,205,3.2,3.6,13,-99.99,,,0.00,4.12,rob ver 1A,2013-10-09 01:15:00,
2013-10-08 18:20:00,85.5,29.0,29.18,SSW,197,2.3,2.7,12,-99.99,,,0.00,2.472,rob ver 1A,2013-10-09 01:20:00,
2013-10-08 18:25:00,85.0,29.0,29.18,SSW,206,2.7,3.3,13,-99.99,,,0.00,.989,rob ver 1A,2013-10-09 01:25:00,
2013-10-08 18:30:00,84.7,29.0,29.15,SSW,199,2.8,3.3,13,-99.99,,,0.00,.33,rob ver 1A,2013-10-09 01:30:00,
2013-10-08 18:35:00,84.2,29.3,29.15,South,191,3.6,4.3,13,-99.99,,,0.00,0,rob ver 1A,2013-10-09 01:35:00,
2013-10-08 18:40:00,83.4,29.1,29.15,SE,137,2.9,3.2,14,-99.99,,,0.00,0,rob ver 1A,2013-10-09 01:40:00,
2013-10-08 18:45:00,82.9,29.5,29.18,SE,143,3.3,3.8,14,-99.99,,,0.00,0,rob ver 1A,2013-10-09 01:45:00,
2013-10-08 18:51:00,83.1,30.0,29.18,South,173,9.5,11.8,14,-99.99,,,0.00,0,rob ver 1A,2013-10-09 01:51:00,
2013-10-08 18:56:00,83.3,30.1,29.18,SE,144,5.6,7.4,14,-99.99,,,0.00,0,rob ver 1A,2013-10-09 01:56:00,
2013-10-08 19:01:00,83.1,32.3,29.15,SE,146,6.9,9.3,16,-99.99,,,0.00,0,rob ver 1A,2013-10-09 02:01:00,
2013-10-08 19:06:00,83.3,34.7,29.15,SSE,163,8.2,9.8,17,-99.99,,,0.00,0,rob ver 1A,2013-10-09 02:06:00,
2013-10-08 19:11:00,83.1,34.7,29.15,SSE,160,7.3,9.7,17,-99.99,,,0.00,0,rob ver 1A,2013-10-09 02:11:00,
2013-10-08 19:16:00,82.6,35.0,29.18,SE,138,5.6,6.5,18,-99.99,,,0.00,0,rob ver 1A,2013-10-09 02:16:00,
2013-10-08 19:21:00,82.3,35.4,29.18,SE,134,5.5,7.0,18,-99.99,,,0.00,0,rob ver 1A,2013-10-09 02:21:00,
2013-10-08 19:26:00,82.3,36.3,29.18,SE,133,5.9,7.2,19,-99.99,,,0.00,0,rob ver 1A,2013-10-09 02:26:00,
2013-10-08 19:31:00,82.4,36.8,29.15,SE,144,6.4,8.8,19,-99.99,,,0.00,0,rob ver 1A,2013-10-09 02:31:00,
2013-10-08 19:36:00,81.7,36.4,29.15,SSE,158,5.3,6.2,19,-99.99,,,0.00,0,rob ver 1A,2013-10-09 02:36:00,
2013-10-08 19:41:00,81.6,36.9,29.15,SE,146,6.6,7.8,20,-99.99,,,0.00,0,rob ver 1A,2013-10-09 02:41:00,
2013-10-08 19:46:00,81.4,36.9,29.15,SE,139,6.0,7.4,20,-99.99,,,0.00,0,rob ver 1A,2013-10-09 02:46:00,
2013-10-08 19:52:00,80.9,36.9,29.15,SE,139,5.0,5.8,20,-99.99,,,0.00,0,rob ver 1A,2013-10-09 02:52:00,
2013-10-08 19:57:00,80.3,36.8,29.15,SE,142,4.5,5.3,21,-99.99,,,0.00,0,rob ver 1A,2013-10-09 02:57:00,
2013-10-08 20:02:00,80.0,36.9,29.15,SE,140,4.4,5.0,21,-99.99,,,0.00,0,rob ver 1A,2013-10-09 03:02:00,
2013-10-08 20:07:00,79.7,36.6,29.15,SE,136,4.3,5.1,21,-99.99,,,0.00,0,rob ver 1A,2013-10-09 03:07:00,
2013-10-08 20:12:00,79.4,36.4,29.15,SE,134,3.9,4.3,21,-99.99,,,0.00,0,rob ver 1A,2013-10-09 03:12:00,
2013-10-08 20:17:00,79.1,36.4,29.15,ESE,118,2.9,3.3,21,-99.99,,,0.00,0,rob ver 1A,2013-10-09 03:17:00,
2013-10-08 20:22:00,78.9,36.3,29.15,SE,126,2.1,2.5,21,-99.99,,,0.00,0,rob ver 1A,2013-10-09 03:22:00,
2013-10-08 20:28:00,78.9,36.5,29.15,East,98,2.7,3.1,21,-99.99,,,0.00,0,rob ver 1A,2013-10-09 03:28:00,
2013-10-08 20:33:00,78.5,36.1,29.15,ESE,107,2.2,2.6,21,-99.99,,,0.00,0,rob ver 1A,2013-10-09 03:33:00,
2013-10-08 20:38:00,78.3,36.0,29.15,ESE,121,2.2,2.8,21,-99.99,,,0.00,0,rob ver 1A,2013-10-09 03:38:00,
2013-10-08 20:43:00,77.5,35.8,29.15,SW,222,3.7,4.3,22,-99.99,,,0.00,0,rob ver 1A,2013-10-09 03:43:00,
2013-10-08 20:48:00,77.8,36.3,29.15,South,170,5.0,6.6,21,-99.99,,,0.00,0,rob ver 1A,2013-10-09 03:48:00,
2013-10-08 20:53:00,78.4,36.1,29.18,SSW,193,4.0,5.3,21,-99.99,,,0.00,0,rob ver 1A,2013-10-09 03:53:00,
2013-10-08 20:59:00,77.8,36.9,29.18,WSW,239,3.4,4.1,22,-99.99,,,0.00,0,rob ver 1A,2013-10-09 03:59:00,
2013-10-08 21:01:00,77.3,37.6,29.18,SW,232,4.4,5.3,23,-99.99,,,0.00,0,rob ver 1A,2013-10-09 04:01:00,
2013-10-08 21:02:00,77.1,37.6,29.18,WSW,244,3.1,4.4,24,-99.99,,,0.00,0,rob ver 1A,2013-10-09 04:02:00,
2013-10-08 21:04:00,76.6,38.0,29.18,WSW,258,3.6,4.4,24,-99.99,,,0.00,0,rob ver 1A,2013-10-09 04:04:00,
2013-10-08 21:09:00,75.4,39.4,29.18,SW,232,6.4,7.6,27,-99.99,,,0.00,0,rob ver 1A,2013-10-09 04:09:00,
2013-10-08 21:14:00,75.1,40.5,29.18,SW,232,7.6,10.2,29,-99.99,,,0.00,0,rob ver 1A,2013-10-09 04:14:00,
2013-10-08 21:19:00,74.8,40.8,29.18,SW,220,10.2,12.1,29,-99.99,,,0.00,0,rob ver 1A,2013-10-09 04:19:00,
2013-10-08 21:20:00,74.9,40.6,29.18,SW,218,11.1,14.3,28,-99.99,,,0.00,0,rob ver 1A,2013-10-09 04:20:00,
2013-10-08 21:25:00,75.8,40.6,29.18,SSW,208,12.9,15.3,28,-99.99,,,0.00,0,rob ver 1A,2013-10-09 04:25:00,
2013-10-08 21:28:00,76.0,40.4,29.18,SSW,201,12.0,13.9,27,-99.99,,,0.00,0,rob ver 1A,2013-10-09 04:28:00,
2013-10-08 21:33:00,76.5,39.2,29.18,SSW,199,11.9,14.2,26,-99.99,,,0.00,0,rob ver 1A,2013-10-09 04:33:00,
2013-10-08 21:38:00,76.2,39.2,29.18,SSW,194,10.0,13.1,26,-99.99,,,0.00,0,rob ver 1A,2013-10-09 04:38:00,
2013-10-08 21:43:00,76.5,39.0,29.18,SSW,192,8.0,9.7,25,-99.99,,,0.00,0,rob ver 1A,2013-10-09 04:43:00,
2013-10-08 21:49:00,76.4,39.1,29.18,SSW,198,7.0,8.3,25,-99.99,,,0.00,0,rob ver 1A,2013-10-09 04:49:00,
2013-10-08 21:54:00,75.6,39.1,29.18,SSW,212,7.7,8.5,26,-99.99,,,0.00,0,rob ver 1A,2013-10-09 04:54:00,
2013-10-08 21:59:00,74.6,40.4,29.18,SW,224,8.6,10.2,29,-99.99,,,0.00,0,rob ver 1A,2013-10-09 04:59:00,
2013-10-08 22:04:00,74.0,41.4,29.18,SW,223,8.8,10.8,30,-99.99,,,0.00,0,rob ver 1A,2013-10-09 05:04:00,
2013-10-08 22:09:00,73.9,42.6,29.18,SW,217,7.8,9.4,32,-99.99,,,0.00,0,rob ver 1A,2013-10-09 05:09:00,
2013-10-08 22:14:00,73.6,43.4,29.18,SW,214,7.8,9.0,33,-99.99,,,0.00,0,rob ver 1A,2013-10-09 05:14:00,
2013-10-08 22:19:00,73.3,43.6,29.18,SW,214,6.8,8.3,34,-99.99,,,0.00,0,rob ver 1A,2013-10-09 05:19:00,
2013-10-08 22:24:00,73.4,44.5,29.18,SSW,205,8.4,10.1,35,-99.99,,,0.00,0,rob ver 1A,2013-10-09 05:24:00,
2013-10-08 22:29:00,73.4,45.5,29.18,SSW,198,8.1,9.6,36,-99.99,,,0.00,0,rob ver 1A,2013-10-09 05:29:00,
2013-10-08 22:34:00,73.3,45.6,29.18,SSW,202,8.2,9.7,37,-99.99,,,0.00,0,rob ver 1A,2013-10-09 05:34:00,
2013-10-08 22:40:00,73.1,45.7,29.15,SW,214,8.4,10.0,37,-99.99,,,0.00,0,rob ver 1A,2013-10-09 05:40:00,
2013-10-08 22:45:00,73.0,45.7,29.15,SSW,212,10.1,11.5,37,-99.99,,,0.00,0,rob ver 1A,2013-10-09 05:45:00,
2013-10-08 22:50:00,72.8,45.8,29.15,SW,215,10.8,12.2,37,-99.99,,,0.00,0,rob ver 1A,2013-10-09 05:50:00,
2013-10-08 22:55:00,72.6,46.2,29.15,SW,214,11.1,13.2,39,-99.99,,,0.00,0,rob ver 1A,2013-10-09 05:55:00,
2013-10-08 23:00:00,72.8,47.0,29.15,SSW,211,11.8,14.0,39,-99.99,,,0.00,0,rob ver 1A,2013-10-09 06:00:00,
2013-10-08 23:05:00,72.8,47.6,29.15,SSW,206,10.9,13.3,40,-99.99,,,0.00,0,rob ver 1A,2013-10-09 06:05:00,
2013-10-08 23:10:00,72.8,48.1,29.15,SSW,205,9.4,12.7,41,-99.99,,,0.00,0,rob ver 1A,2013-10-09 06:10:00,
2013-10-08 23:16:00,72.6,48.6,29.15,SSW,204,6.8,9.2,42,-99.99,,,0.00,0,rob ver 1A,2013-10-09 06:16:00,
2013-10-08 23:21:00,72.4,49.1,29.15,SSW,200,6.9,9.1,43,-99.99,,,0.00,0,rob ver 1A,2013-10-09 06:21:00,
2013-10-08 23:26:00,72.3,49.4,29.15,SSW,198,6.0,7.4,44,-99.99,,,0.00,0,rob ver 1A,2013-10-09 06:26:00,
2013-10-08 23:31:00,72.3,49.6,29.15,SSW,194,6.0,7.3,44,-99.99,,,0.00,0,rob ver 1A,2013-10-09 06:31:00,
2013-10-08 23:36:00,72.2,49.7,29.15,South,188,5.5,6.9,45,-99.99,,,0.00,0,rob ver 1A,2013-10-09 06:36:00,
2013-10-08 23:41:00,72.1,50.1,29.15,South,191,5.6,6.9,45,-99.99,,,0.00,0,rob ver 1A,2013-10-09 06:41:00,
2013-10-08 23:46:00,72.0,50.4,29.15,South,190,5.7,7.3,46,-99.99,,,0.00,0,rob ver 1A,2013-10-09 06:46:00,
2013-10-08 23:52:00,71.9,50.5,29.15,South,187,5.1,6.2,46,-99.99,,,0.00,0,rob ver 1A,2013-10-09 06:52:00,
2013-10-08 23:57:00,71.8,50.3,29.15,SSW,195,4.9,5.9,46,-99.99,,,0.00,0,rob ver 1A,2013-10-09 06:57:00,